Wetterdaten: Sonntag, 01.04.2012
Datum Zeit Temp. Innen Temp. Aussen UV X Diff Temp. Feuchte Inne Feuchte Auss Sonnenschein Luftdruck Regen ab 0,1 Wind Sonnenschein T Regendauer Windben
01.04.2012 00:00 16,1 C 3,1 C 0,0 UV-I 0,0 C 46 % 76 % 0 % 1019,3 hPa 0,0 l/m 0,0 km/h (0 Bft) 0 min 0 min 0,0 km/h (0 Bft)
01.04.2012 00:02 16,1 C 3,1 C 0,0 UV-I 0,0 C 46 % 76 % 0 % 1019,3 hPa 0,0 l/m 0,0 km/h (0 Bft) 0 min 0 min 0,0 km/h (0 Bft)
01.04.2012 00:04 16,1 C 2,9 C 0,0 UV-I 0,0 C 46 % 76 % 0 % 1019,3 hPa 0,0 l/m 0,0 km/h (0 Bft) 0 min 0 min 0,0 km/h (0 Bft)
01.04.2012 00:06 16,1 C 2,9 C 0,0 UV-I 0,0 C 46 % 76 % 0 % 1019,2 hPa 0,0 l/m 0,0 km/h (0 Bft) 0 min 0 min 0,0 km/h (0 Bft)
01.04.2012 00:08 16,1 C 2,8 C 0,0 UV-I 0,0 C 46 % 76 % 0 % 1019,2 hPa 0,0 l/m 0,0 km/h (0 Bft) 0 min 0 min 0,0 km/h (0 Bft)
01.04.2012 00:10 15,9 C 2,9 C 0,0 UV-I 0,0 C 46 % 76 % 0 % 1019,2 hPa 0,0 l/m 0,0 km/h (0 Bft) 0 min 0 min 0,0 km/h (0 Bft)
01.04.2012 00:12 15,9 C 2,8 C 0,0 UV-I 0,0 C 46 % 77 % 0 % 1019,2 hPa 0,0 l/m 0,4 km/h (0 Bft) 0 min 0 min 0,0 km/h (0 Bft)
01.04.2012 00:14 15,9 C 2,8 C 0,0 UV-I 0,0 C 46 % 77 % 0 % 1019,2 hPa 0,0 l/m 0,4 km/h (0 Bft) 0 min 0 min 0,0 km/h (0 Bft)
01.04.2012 00:16 15,9 C 2,8 C 0,0 UV-I 0,0 C 46 % 77 % 0 % 1019,2 hPa 0,0 l/m 0,4 km/h (0 Bft) 0 min 0 min 0,0 km/h (0 Bft)
01.04.2012 00:18 15,9 C 2,7 C 0,0 UV-I 0,0 C 46 % 77 % 0 % 1019,2 hPa 0,0 l/m 0,8 km/h (0 Bft) 0 min 0 min 5,2 km/h (1 Bft)
01.04.2012 00:20 15,9 C 2,7 C 0,0 UV-I 0,0 C 46 % 78 % 0 % 1019,2 hPa 0,0 l/m 1,6 km/h (1 Bft) 0 min 0 min 8,4 km/h (2 Bft)
01.04.2012 00:22 15,9 C 2,8 C 0,0 UV-I 0,0 C 46 % 78 % 0 % 1019,2 hPa 0,0 l/m 2,4 km/h (1 Bft) 0 min 0 min 8,4 km/h (2 Bft)
01.04.2012 00:24 15,9 C 2,8 C 0,0 UV-I 0,0 C 46 % 78 % 0 % 1019,4 hPa 0,0 l/m 2,4 km/h (1 Bft) 0 min 0 min 4,8 km/h (1 Bft)
01.04.2012 00:26 15,9 C 2,9 C 0,0 UV-I 0,0 C 46 % 79 % 0 % 1019,4 hPa 0,0 l/m 2,8 km/h (1 Bft) 0 min 0 min 6,8 km/h (2 Bft)
01.04.2012 00:28 16,0 C 2,8 C 0,0 UV-I 0,0 C 46 % 79 % 0 % 1019,4 hPa 0,0 l/m 3,2 km/h (1 Bft) 0 min 0 min 8,4 km/h (2 Bft)
01.04.2012 00:30 16,0 C 2,8 C 0,0 UV-I 0,0 C 46 % 78 % 0 % 1019,4 hPa 0,0 l/m 2,4 km/h (1 Bft) 0 min 0 min 5,2 km/h (1 Bft)
01.04.2012 00:32 16,0 C 2,8 C 0,0 UV-I 0,0 C 46 % 78 % 0 % 1019,4 hPa 0,0 l/m 1,6 km/h (1 Bft) 0 min 0 min 4,4 km/h (1 Bft)
01.04.2012 00:34 16,0 C 2,8 C 0,0 UV-I 0,0 C 46 % 78 % 0 % 1019,4 hPa 0,0 l/m 1,6 km/h (1 Bft) 0 min 0 min 4,4 km/h (1 Bft)
01.04.2012 00:36 16,0 C 2,8 C 0,0 UV-I 0,0 C 46 % 78 % 0 % 1019,4 hPa 0,0 l/m 1,2 km/h (1 Bft) 0 min 0 min 4,4 km/h (1 Bft)
01.04.2012 00:38 16,0 C 2,8 C 0,0 UV-I 0,0 C 46 % 79 % 0 % 1019,4 hPa 0,0 l/m 0,8 km/h (0 Bft) 0 min 0 min 4,4 km/h (1 Bft)
01.04.2012 00:40 16,0 C 2,8 C 0,0 UV-I 0,0 C 46 % 79 % 0 % 1019,4 hPa 0,0 l/m 1,2 km/h (1 Bft) 0 min 0 min 5,2 km/h (1 Bft)
01.04.2012 00:42 16,0 C 2,8 C 0,0 UV-I 0,0 C 46 % 79 % 0 % 1019,4 hPa 0,0 l/m 2,0 km/h (1 Bft) 0 min 0 min 6,0 km/h (2 Bft)
01.04.2012 00:44 16,0 C 2,8 C 0,0 UV-I 0,0 C 46 % 79 % 0 % 1019,4 hPa 0,0 l/m 2,4 km/h (1 Bft) 0 min 0 min 6,0 km/h (2 Bft)
01.04.2012 00:46 16,0 C 2,7 C 0,0 UV-I 0,0 C 46 % 79 % 0 % 1019,4 hPa 0,0 l/m 2,8 km/h (1 Bft) 0 min 0 min 4,4 km/h (1 Bft)
01.04.2012 00:48 16,0 C 2,7 C 0,0 UV-I 0,0 C 46 % 79 % 0 % 1019,4 hPa 0,0 l/m 2,4 km/h (1 Bft) 0 min 0 min 4,0 km/h (1 Bft)
01.04.2012 00:50 16,0 C 2,7 C 0,0 UV-I 0,0 C 46 % 79 % 0 % 1019,4 hPa 0,0 l/m 2,4 km/h (1 Bft) 0 min 0 min 0,0 km/h (0 Bft)
01.04.2012 00:52 16,0 C 2,7 C 0,0 UV-I 0,0 C 46 % 79 % 0 % 1019,4 hPa 0,0 l/m 1,6 km/h (1 Bft) 0 min 0 min 0,0 km/h (0 Bft)
01.04.2012 00:54 16,0 C 2,7 C 0,0 UV-I 0,0 C 46 % 79 % 0 % 1019,4 hPa 0,0 l/m 0,8 km/h (0 Bft) 0 min 0 min 4,4 km/h (1 Bft)
01.04.2012 00:56 15,8 C 2,7 C 0,0 UV-I 0,0 C 46 % 79 % 0 % 1019,4 hPa 0,0 l/m 0,8 km/h (0 Bft) 0 min 0 min 6,0 km/h (2 Bft)
01.04.2012 00:58 16,0 C 2,5 C 0,0 UV-I 0,0 C 46 % 79 % 0 % 1019,4 hPa 0,0 l/m 0,4 km/h (0 Bft) 0 min 0 min 6,0 km/h (2 Bft)
01.04.2012 01:00 15,8 C 2,5 C 0,0 UV-I 0,0 C 46 % 79 % 0 % 1019,4 hPa 0,0 l/m 0,4 km/h (0 Bft) 0 min 0 min 0,0 km/h (0 Bft)
01.04.2012 01:02 15,8 C 2,5 C 0,0 UV-I 0,0 C 46 % 79 % 0 % 1019,4 hPa 0,0 l/m 0,4 km/h (0 Bft) 0 min 0 min 0,0 km/h (0 Bft)
01.04.2012 01:04 15,8 C 2,4 C 0,0 UV-I 0,0 C 46 % 79 % 0 % 1019,7 hPa 0,0 l/m 0,4 km/h (0 Bft) 0 min 0 min 0,0 km/h (0 Bft)
01.04.2012 01:06 15,9 C 2,5 C 0,0 UV-I 0,0 C 46 % 79 % 0 % 1019,7 hPa 0,0 l/m 0,4 km/h (0 Bft) 0 min 0 min 0,0 km/h (0 Bft)
01.04.2012 01:08 15,9 C 2,4 C 0,0 UV-I 0,0 C 46 % 79 % 0 % 1019,7 hPa 0,0 l/m 0,0 km/h (0 Bft) 0 min 0 min 0,0 km/h (0 Bft)
01.04.2012 01:10 15,9 C 2,4 C 0,0 UV-I 0,0 C 46 % 79 % 0 % 1019,7 hPa 0,0 l/m 0,0 km/h (0 Bft) 0 min 0 min 0,0 km/h (0 Bft)
01.04.2012 01:12 15,9 C 2,3 C 0,0 UV-I 0,0 C 46 % 79 % 0 % 1019,7 hPa 0,0 l/m 0,0 km/h (0 Bft) 0 min 0 min 0,0 km/h (0 Bft)
01.04.2012 01:14 15,9 C 2,2 C 0,0 UV-I 0,0 C 46 % 79 % 0 % 1019,7 hPa 0,0 l/m 0,0 km/h (0 Bft) 0 min 0 min 0,0 km/h (0 Bft)
01.04.2012 01:16 15,9 C 2,3 C 0,0 UV-I 0,0 C 46 % 79 % 0 % 1019,7 hPa 0,0 l/m 0,0 km/h (0 Bft) 0 min 0 min 0,0 km/h (0 Bft)
01.04.2012 01:18 15,9 C 2,1 C 0,0 UV-I 0,0 C 46 % 79 % 0 % 1019,7 hPa 0,0 l/m 0,0 km/h (0 Bft) 0 min 0 min 0,0 km/h (0 Bft)
01.04.2012 01:20 15,9 C 2,0 C 0,0 UV-I 0,0 C 46 % 80 % 0 % 1019,7 hPa 0,0 l/m 0,0 km/h (0 Bft) 0 min 0 min 0,0 km/h (0 Bft)
01.04.2012 01:22 15,8 C 2,0 C 0,0 UV-I 0,0 C 46 % 79 % 0 % 1019,7 hPa 0,0 l/m 0,0 km/h (0 Bft) 0 min 0 min 0,0 km/h (0 Bft)
01.04.2012 01:24 15,8 C 2,0 C 0,0 UV-I 0,0 C 46 % 80 % 0 % 1019,7 hPa 0,0 l/m 0,0 km/h (0 Bft) 0 min 0 min 0,0 km/h (0 Bft)
01.04.2012 01:26 15,8 C 1,9 C 0,0 UV-I 0,0 C 45 % 80 % 0 % 1020,1 hPa 0,0 l/m 0,0 km/h (0 Bft) 0 min 0 min 0,0 km/h (0 Bft)
01.04.2012 01:28 15,8 C 1,9 C 0,0 UV-I 0,0 C 46 % 80 % 0 % 1020,1 hPa 0,0 l/m 0,0 km/h (0 Bft) 0 min 0 min 0,0 km/h (0 Bft)
01.04.2012 01:30 15,8 C 1,9 C 0,0 UV-I 0,0 C 46 % 80 % 0 % 1020,1 hPa 0,0 l/m 0,0 km/h (0 Bft) 0 min 0 min 0,0 km/h (0 Bft)
01.04.2012 01:32 15,8 C 1,8 C 0,0 UV-I 0,0 C 46 % 80 % 0 % 1020,1 hPa 0,0 l/m 0,0 km/h (0 Bft) 0 min 0 min 0,0 km/h (0 Bft)
01.04.2012 01:34 15,8 C 1,7 C 0,0 UV-I 0,0 C 46 % 80 % 0 % 1020,1 hPa 0,0 l/m 0,0 km/h (0 Bft) 0 min 0 min 0,0 km/h (0 Bft)
01.04.2012 01:36 15,8 C 1,6 C 0,0 UV-I 0,0 C 45 % 80 % 0 % 1020,1 hPa 0,0 l/m 0,0 km/h (0 Bft) 0 min 0 min 0,0 km/h (0 Bft)
01.04.2012 01:38 15,8 C 1,7 C 0,0 UV-I 0,0 C 46 % 80 % 0 % 1020,1 hPa 0,0 l/m 0,0 km/h (0 Bft) 0 min 0 min 0,0 km/h (0 Bft)
01.04.2012 01:40 15,8 C 1,6 C 0,0 UV-I 0,0 C 45 % 80 % 0 % 1020,1 hPa 0,0 l/m 0,0 km/h (0 Bft) 0 min 0 min 0,0 km/h (0 Bft)
01.04.2012 01:42 15,8 C 1,5 C 0,0 UV-I 0,0 C 46 % 80 % 0 % 1020,1 hPa 0,0 l/m 0,0 km/h (0 Bft) 0 min 0 min 0,0 km/h (0 Bft)
01.04.2012 01:44 15,8 C 1,5 C 0,0 UV-I 0,0 C 45 % 80 % 0 % 1019,8 hPa 0,0 l/m 0,0 km/h (0 Bft) 0 min 0 min 0,0 km/h (0 Bft)
01.04.2012 01:46 15,8 C 1,4 C 0,0 UV-I 0,0 C 46 % 80 % 0 % 1019,8 hPa 0,0 l/m 0,0 km/h (0 Bft) 0 min 0 min 0,0 km/h (0 Bft)
01.04.2012 01:48 15,8 C 1,3 C 0,0 UV-I 0,0 C 45 % 80 % 0 % 1019,8 hPa 0,0 l/m 0,0 km/h (0 Bft) 0 min 0 min 0,0 km/h (0 Bft)
01.04.2012 01:50 15,8 C 1,2 C 0,0 UV-I 0,0 C 46 % 80 % 0 % 1019,8 hPa 0,0 l/m 0,0 km/h (0 Bft) 0 min 0 min 0,0 km/h (0 Bft)
01.04.2012 01:52 15,8 C 1,3 C 0,0 UV-I 0,0 C 45 % 80 % 0 % 1019,8 hPa 0,0 l/m 0,0 km/h (0 Bft) 0 min 0 min 0,0 km/h (0 Bft)
01.04.2012 01:54 15,8 C 1,2 C 0,0 UV-I 0,0 C 45 % 81 % 0 % 1019,8 hPa 0,0 l/m 0,0 km/h (0 Bft) 0 min 0 min 0,0 km/h (0 Bft)
01.04.2012 01:56 15,8 C 1,1 C 0,0 UV-I 0,0 C 45 % 81 % 0 % 1019,8 hPa 0,0 l/m 0,0 km/h (0 Bft) 0 min 0 min 0,0 km/h (0 Bft)
01.04.2012 01:58 15,8 C 1,1 C 0,0 UV-I 0,0 C 45 % 81 % 0 % 1019,8 hPa 0,0 l/m 0,0 km/h (0 Bft) 0 min 0 min 0,0 km/h (0 Bft)
01.04.2012 02:00 15,6 C 1,1 C 0,0 UV-I 0,0 C 45 % 81 % 0 % 1019,8 hPa 0,0 l/m 0,0 km/h (0 Bft) 0 min 0 min 0,0 km/h (0 Bft)
01.04.2012 02:02 15,6 C 1,1 C 0,0 UV-I 0,0 C 45 % 81 % 0 % 1019,8 hPa 0,0 l/m 0,0 km/h (0 Bft) 0 min 0 min 0,0 km/h (0 Bft)
01.04.2012 02:04 15,6 C 1,0 C 0,0 UV-I 0,0 C 45 % 81 % 0 % 1019,9 hPa 0,0 l/m 0,0 km/h (0 Bft) 0 min 0 min 0,0 km/h (0 Bft)
01.04.2012 02:06 15,6 C 0,9 C 0,0 UV-I 0,0 C 45 % 81 % 0 % 1019,9 hPa 0,0 l/m 0,0 km/h (0 Bft) 0 min 0 min 0,0 km/h (0 Bft)
01.04.2012 02:08 15,6 C 0,8 C 0,0 UV-I 0,0 C 45 % 81 % 0 % 1019,9 hPa 0,0 l/m 0,0 km/h (0 Bft) 0 min 0 min 0,0 km/h (0 Bft)
01.04.2012 02:10 15,6 C 0,8 C 0,0 UV-I 0,0 C 45 % 81 % 0 % 1019,9 hPa 0,0 l/m 0,0 km/h (0 Bft) 0 min 0 min 0,0 km/h (0 Bft)
01.04.2012 02:12 15,6 C 0,8 C 0,0 UV-I 0,0 C 45 % 81 % 0 % 1019,9 hPa 0,0 l/m 0,0 km/h (0 Bft) 0 min 0 min 0,0 km/h (0 Bft)
01.04.2012 02:14 15,6 C 0,8 C 0,0 UV-I 0,0 C 45 % 82 % 0 % 1019,9 hPa 0,0 l/m 0,0 km/h (0 Bft) 0 min 0 min 0,0 km/h (0 Bft)
01.04.2012 02:16 15,7 C 0,7 C 0,0 UV-I 0,0 C 45 % 82 % 0 % 1019,9 hPa 0,0 l/m 0,0 km/h (0 Bft) 0 min 0 min 0,0 km/h (0 Bft)
01.04.2012 02:18 15,7 C 0,7 C 0,0 UV-I 0,0 C 45 % 82 % 0 % 1019,9 hPa 0,0 l/m 0,0 km/h (0 Bft) 0 min 0 min 0,0 km/h (0 Bft)
01.04.2012 02:20 15,7 C 0,7 C 0,0 UV-I 0,0 C 45 % 82 % 0 % 1019,9 hPa 0,0 l/m 0,0 km/h (0 Bft) 0 min 0 min 0,0 km/h (0 Bft)
01.04.2012 02:22 15,7 C 0,7 C 0,0 UV-I 0,0 C 45 % 82 % 0 % 1019,9 hPa 0,0 l/m 0,0 km/h (0 Bft) 0 min 0 min 0,0 km/h (0 Bft)
01.04.2012 02:24 15,6 C 0,7 C 0,0 UV-I 0,0 C 45 % 83 % 0 % 1019,9 hPa 0,0 l/m 0,0 km/h (0 Bft) 0 min 0 min 0,0 km/h (0 Bft)
01.04.2012 02:26 15,6 C 0,7 C 0,0 UV-I 0,0 C 45 % 83 % 0 % 1019,9 hPa 0,0 l/m 0,0 km/h (0 Bft) 0 min 0 min 0,0 km/h (0 Bft)
01.04.2012 02:28 15,6 C 0,7 C 0,0 UV-I 0,0 C 45 % 83 % 0 % 1019,9 hPa 0,0 l/m 0,0 km/h (0 Bft) 0 min 0 min 0,0 km/h (0 Bft)
01.04.2012 02:30 15,6 C 0,6 C 0,0 UV-I 0,0 C 45 % 83 % 0 % 1019,9 hPa 0,0 l/m 0,0 km/h (0 Bft) 0 min 0 min 0,0 km/h (0 Bft)
01.04.2012 02:32 15,6 C 0,7 C 0,0 UV-I 0,0 C 45 % 83 % 0 % 1019,9 hPa 0,0 l/m 0,0 km/h (0 Bft) 0 min 0 min 0,0 km/h (0 Bft)
01.04.2012 02:34 15,6 C 0,6 C 0,0 UV-I 0,0 C 45 % 83 % 0 % 1019,9 hPa 0,0 l/m 0,0 km/h (0 Bft) 0 min 0 min 0,0 km/h (0 Bft)
01.04.2012 02:36 15,6 C 0,5 C 0,0 UV-I 0,0 C 45 % 83 % 0 % 1019,9 hPa 0,0 l/m 0,0 km/h (0 Bft) 0 min 0 min 0,0 km/h (0 Bft)
01.04.2012 02:38 15,6 C 0,5 C 0,0 UV-I 0,0 C 45 % 83 % 0 % 1019,9 hPa 0,0 l/m 0,0 km/h (0 Bft) 0 min 0 min 0,0 km/h (0 Bft)
01.04.2012 02:40 15,6 C 0,5 C 0,0 UV-I 0,0 C 45 % 83 % 0 % 1019,9 hPa 0,0 l/m 0,0 km/h (0 Bft) 0 min 0 min 0,0 km/h (0 Bft)
01.04.2012 02:42 15,6 C 0,4 C 0,0 UV-I 0,0 C 45 % 83 % 0 % 1019,9 hPa 0,0 l/m 0,0 km/h (0 Bft) 0 min 0 min 0,0 km/h (0 Bft)
01.04.2012 02:44 15,6 C 0,5 C 0,0 UV-I 0,0 C 45 % 83 % 0 % 1019,9 hPa 0,0 l/m 0,0 km/h (0 Bft) 0 min 0 min 0,0 km/h (0 Bft)
01.04.2012 02:46 15,6 C 0,4 C 0,0 UV-I 0,0 C 45 % 83 % 0 % 1020,1 hPa 0,0 l/m 0,0 km/h (0 Bft) 0 min 0 min 0,0 km/h (0 Bft)
01.04.2012 02:48 15,6 C 0,4 C 0,0 UV-I 0,0 C 45 % 83 % 0 % 1020,1 hPa 0,0 l/m 0,0 km/h (0 Bft) 0 min 0 min 0,0 km/h (0 Bft)
01.04.2012 02:50 15,6 C 0,3 C 0,0 UV-I 0,0 C 45 % 83 % 0 % 1020,1 hPa 0,0 l/m 0,0 km/h (0 Bft) 0 min 0 min 0,0 km/h (0 Bft)
01.04.2012 02:52 15,6 C 0,3 C 0,0 UV-I 0,0 C 45 % 84 % 0 % 1020,1 hPa 0,0 l/m 0,0 km/h (0 Bft) 0 min 0 min 0,0 km/h (0 Bft)
01.04.2012 02:54 15,6 C 0,3 C 0,0 UV-I 0,0 C 45 % 84 % 0 % 1020,1 hPa 0,0 l/m 0,0 km/h (0 Bft) 0 min 0 min 0,0 km/h (0 Bft)
01.04.2012 02:56 15,6 C 0,2 C 0,0 UV-I 0,0 C 45 % 84 % 0 % 1020,1 hPa 0,0 l/m 0,0 km/h (0 Bft) 0 min 2 min 0,0 km/h (0 Bft)
01.04.2012 02:58 15,6 C 0,3 C 0,0 UV-I 0,0 C 45 % 84 % 0 % 1020,1 hPa 0,0 l/m 0,0 km/h (0 Bft) 0 min 0 min 0,0 km/h (0 Bft)
01.04.2012 03:00 15,6 C 0,3 C 0,0 UV-I 0,0 C 45 % 84 % 0 % 1020,1 hPa 0,0 l/m 0,0 km/h (0 Bft) 0 min 0 min 0,0 km/h (0 Bft)
01.04.2012 03:02 15,6 C 0,3 C 0,0 UV-I 0,0 C 45 % 84 % 0 % 1020,1 hPa 0,0 l/m 0,0 km/h (0 Bft) 0 min 0 min 0,0 km/h (0 Bft)
01.04.2012 03:04 15,6 C 0,1 C 0,0 UV-I 0,0 C 45 % 84 % 0 % 1019,7 hPa 0,0 l/m 0,0 km/h (0 Bft) 0 min 0 min 0,0 km/h (0 Bft)
01.04.2012 03:06 15,4 C 0,1 C 0,0 UV-I 0,0 C 45 % 84 % 0 % 1019,7 hPa 0,0 l/m 0,0 km/h (0 Bft) 0 min 0 min 0,0 km/h (0 Bft)
01.04.2012 03:08 15,4 C 0,0 C 0,0 UV-I 0,0 C 45 % 84 % 0 % 1019,7 hPa 0,0 l/m 0,0 km/h (0 Bft) 0 min 0 min 0,0 km/h (0 Bft)
01.04.2012 03:10 15,4 C 0,0 C 0,0 UV-I 0,0 C 45 % 84 % 0 % 1019,7 hPa 0,0 l/m 0,0 km/h (0 Bft) 0 min 0 min 0,0 km/h (0 Bft)
01.04.2012 03:12 15,4 C 0,0 C 0,0 UV-I 0,0 C 45 % 85 % 0 % 1019,7 hPa 0,0 l/m 0,0 km/h (0 Bft) 0 min 0 min 0,0 km/h (0 Bft)
01.04.2012 03:14 15,5 C -0,1 C 0,0 UV-I 0,0 C 45 % 84 % 0 % 1019,7 hPa 0,0 l/m 0,0 km/h (0 Bft) 0 min 0 min 0,0 km/h (0 Bft)
01.04.2012 03:16 15,5 C -0,1 C 0,0 UV-I 0,0 C 45 % 84 % 0 % 1019,7 hPa 0,0 l/m 0,0 km/h (0 Bft) 0 min 0 min 0,0 km/h (0 Bft)
01.04.2012 03:18 15,5 C -0,1 C 0,0 UV-I 0,0 C 45 % 85 % 0 % 1019,7 hPa 0,0 l/m 0,0 km/h (0 Bft) 0 min 0 min 0,0 km/h (0 Bft)
01.04.2012 03:20 15,5 C -0,1 C 0,0 UV-I 0,0 C 45 % 85 % 0 % 1019,7 hPa 0,0 l/m 0,0 km/h (0 Bft) 0 min 0 min 0,0 km/h (0 Bft)
01.04.2012 03:22 15,5 C -0,1 C 0,0 UV-I 0,0 C 45 % 85 % 0 % 1019,7 hPa 0,0 l/m 0,0 km/h (0 Bft) 0 min 0 min 0,0 km/h (0 Bft)
01.04.2012 03:24 15,3 C -0,1 C 0,0 UV-I 0,0 C 45 % 85 % 0 % 1019,7 hPa 0,0 l/m 0,0 km/h (0 Bft) 0 min 0 min 0,0 km/h (0 Bft)
01.04.2012 03:26 15,3 C -0,2 C 0,0 UV-I 0,0 C 45 % 85 % 0 % 1020,2 hPa 0,0 l/m 0,0 km/h (0 Bft) 0 min 0 min 0,0 km/h (0 Bft)
01.04.2012 03:28 15,5 C -0,1 C 0,0 UV-I 0,0 C 45 % 85 % 0 % 1020,2 hPa 0,0 l/m 0,0 km/h (0 Bft) 0 min 0 min 0,0 km/h (0 Bft)
01.04.2012 03:30 15,5 C -0,1 C 0,0 UV-I 0,0 C 45 % 85 % 0 % 1020,2 hPa 0,0 l/m 0,0 km/h (0 Bft) 0 min 0 min 0,0 km/h (0 Bft)
01.04.2012 03:32 15,4 C -0,3 C 0,0 UV-I 0,0 C 45 % 85 % 0 % 1020,2 hPa 0,0 l/m 0,0 km/h (0 Bft) 0 min 0 min 0,0 km/h (0 Bft)
01.04.2012 03:34 15,4 C -0,3 C 0,0 UV-I 0,0 C 45 % 85 % 0 % 1020,2 hPa 0,0 l/m 0,0 km/h (0 Bft) 0 min 0 min 0,0 km/h (0 Bft)
01.04.2012 03:36 15,4 C -0,3 C 0,0 UV-I 0,0 C 45 % 85 % 0 % 1020,2 hPa 0,0 l/m 0,0 km/h (0 Bft) 0 min 0 min 0,0 km/h (0 Bft)
01.04.2012 03:38 15,4 C -0,4 C 0,0 UV-I 0,0 C 45 % 85 % 0 % 1020,2 hPa 0,0 l/m 0,0 km/h (0 Bft) 0 min 0 min 0,0 km/h (0 Bft)
01.04.2012 03:40 15,4 C -0,4 C 0,0 UV-I 0,0 C 45 % 86 % 0 % 1020,2 hPa 0,0 l/m 0,0 km/h (0 Bft) 0 min 2 min 0,0 km/h (0 Bft)
01.04.2012 03:42 15,4 C -0,3 C 0,0 UV-I 0,0 C 45 % 86 % 0 % 1020,2 hPa 0,0 l/m 0,0 km/h (0 Bft) 0 min 0 min 0,0 km/h (0 Bft)
01.04.2012 03:44 15,4 C -0,3 C 0,0 UV-I 0,0 C 45 % 86 % 0 % 1020,2 hPa 0,0 l/m 0,0 km/h (0 Bft) 0 min 0 min 0,0 km/h (0 Bft)
01.04.2012 03:46 15,4 C -0,5 C 0,0 UV-I 0,0 C 45 % 85 % 0 % 1019,8 hPa 0,0 l/m 0,0 km/h (0 Bft) 0 min 0 min 0,0 km/h (0 Bft)
01.04.2012 03:48 15,4 C -0,5 C 0,0 UV-I 0,0 C 45 % 86 % 0 % 1019,8 hPa 0,0 l/m 0,0 km/h (0 Bft) 0 min 0 min 0,0 km/h (0 Bft)
01.04.2012 03:50 15,4 C -0,5 C 0,0 UV-I 0,0 C 45 % 86 % 0 % 1019,8 hPa 0,0 l/m 0,0 km/h (0 Bft) 0 min 0 min 0,0 km/h (0 Bft)
01.04.2012 03:52 15,4 C -0,3 C 0,0 UV-I 0,0 C 45 % 86 % 0 % 1019,8 hPa 0,0 l/m 0,0 km/h (0 Bft) 0 min 0 min 0,0 km/h (0 Bft)
01.04.2012 03:54 15,4 C -0,3 C 0,0 UV-I 0,0 C 45 % 86 % 0 % 1019,8 hPa 0,0 l/m 0,0 km/h (0 Bft) 0 min 0 min 0,0 km/h (0 Bft)
01.04.2012 03:56 15,4 C -0,5 C 0,0 UV-I 0,0 C 45 % 86 % 0 % 1019,8 hPa 0,0 l/m 0,0 km/h (0 Bft) 0 min 0 min 0,0 km/h (0 Bft)
01.04.2012 03:58 15,4 C -0,3 C 0,0 UV-I 0,0 C 45 % 86 % 0 % 1019,8 hPa 0,0 l/m 0,0 km/h (0 Bft) 0 min 0 min 0,0 km/h (0 Bft)
01.04.2012 04:00 15,4 C -0,5 C 0,0 UV-I 0,0 C 45 % 86 % 0 % 1019,8 hPa 0,0 l/m 0,0 km/h (0 Bft) 0 min 0 min 0,0 km/h (0 Bft)
01.04.2012 04:02 15,2 C -0,5 C 0,0 UV-I 0,0 C 45 % 87 % 0 % 1019,8 hPa 0,0 l/m 0,0 km/h (0 Bft) 0 min 2 min 0,0 km/h (0 Bft)
01.04.2012 04:04 15,2 C -0,5 C 0,0 UV-I 0,0 C 45 % 86 % 0 % 1019,9 hPa 0,0 l/m 0,0 km/h (0 Bft) 0 min 0 min 0,0 km/h (0 Bft)
01.04.2012 04:06 15,2 C -0,5 C 0,0 UV-I 0,0 C 45 % 87 % 0 % 1019,9 hPa 0,0 l/m 0,0 km/h (0 Bft) 0 min 0 min 0,0 km/h (0 Bft)
01.04.2012 04:08 15,2 C -0,5 C 0,0 UV-I 0,0 C 45 % 86 % 0 % 1019,9 hPa 0,0 l/m 0,0 km/h (0 Bft) 0 min 0 min 0,0 km/h (0 Bft)
01.04.2012 04:10 15,2 C -0,6 C 0,0 UV-I 0,0 C 45 % 87 % 0 % 1019,9 hPa 0,0 l/m 0,0 km/h (0 Bft) 0 min 0 min 0,0 km/h (0 Bft)
01.04.2012 04:12 15,3 C -0,6 C 0,0 UV-I 0,0 C 45 % 87 % 0 % 1019,9 hPa 0,0 l/m 0,0 km/h (0 Bft) 0 min 0 min 0,0 km/h (0 Bft)
01.04.2012 04:14 15,3 C -0,5 C 0,0 UV-I 0,0 C 45 % 87 % 0 % 1019,9 hPa 0,0 l/m 0,0 km/h (0 Bft) 0 min 0 min 0,0 km/h (0 Bft)
01.04.2012 04:16 15,2 C -0,5 C 0,0 UV-I 0,0 C 45 % 87 % 0 % 1019,9 hPa 0,0 l/m 0,0 km/h (0 Bft) 0 min 0 min 0,0 km/h (0 Bft)
01.04.2012 04:18 15,3 C -0,5 C 0,0 UV-I 0,0 C 45 % 87 % 0 % 1019,9 hPa 0,0 l/m 0,0 km/h (0 Bft) 0 min 0 min 0,0 km/h (0 Bft)
01.04.2012 04:20 15,2 C -0,5 C 0,0 UV-I 0,0 C 45 % 87 % 0 % 1019,9 hPa 0,0 l/m 0,0 km/h (0 Bft) 0 min 0 min 0,0 km/h (0 Bft)
01.04.2012 04:22 15,3 C -0,5 C 0,0 UV-I 0,0 C 45 % 87 % 0 % 1019,9 hPa 0,0 l/m 0,0 km/h (0 Bft) 0 min 0 min 0,0 km/h (0 Bft)
01.04.2012 04:24 15,3 C -0,5 C 0,0 UV-I 0,0 C 45 % 87 % 0 % 1019,9 hPa 0,0 l/m 0,0 km/h (0 Bft) 0 min 0 min 0,0 km/h (0 Bft)
01.04.2012 04:26 15,1 C -0,5 C 0,0 UV-I 0,0 C 45 % 87 % 0 % 1020,1 hPa 0,0 l/m 0,0 km/h (0 Bft) 0 min 0 min 0,0 km/h (0 Bft)
01.04.2012 04:28 15,1 C -0,5 C 0,0 UV-I 0,0 C 45 % 87 % 0 % 1020,1 hPa 0,0 l/m 0,0 km/h (0 Bft) 0 min 0 min 0,0 km/h (0 Bft)
01.04.2012 04:30 15,1 C -0,5 C 0,0 UV-I 0,0 C 45 % 87 % 0 % 1020,1 hPa 0,0 l/m 0,0 km/h (0 Bft) 0 min 0 min 0,0 km/h (0 Bft)
01.04.2012 04:32 15,1 C -0,5 C 0,0 UV-I 0,0 C 45 % 87 % 0 % 1020,1 hPa 0,0 l/m 0,0 km/h (0 Bft) 0 min 0 min 0,0 km/h (0 Bft)
01.04.2012 04:34 15,1 C -0,5 C 0,0 UV-I 0,0 C 45 % 88 % 0 % 1020,1 hPa 0,0 l/m 0,0 km/h (0 Bft) 0 min 0 min 0,0 km/h (0 Bft)
01.04.2012 04:36 15,1 C -0,5 C 0,0 UV-I 0,0 C 45 % 88 % 0 % 1020,1 hPa 0,0 l/m 0,0 km/h (0 Bft) 0 min 0 min 0,0 km/h (0 Bft)
01.04.2012 04:38 15,2 C -0,7 C 0,0 UV-I 0,0 C 45 % 88 % 0 % 1020,1 hPa 0,0 l/m 0,0 km/h (0 Bft) 0 min 0 min 0,0 km/h (0 Bft)
01.04.2012 04:40 15,1 C -0,7 C 0,0 UV-I 0,0 C 45 % 88 % 0 % 1020,1 hPa 0,0 l/m 0,0 km/h (0 Bft) 0 min 0 min 0,0 km/h (0 Bft)
01.04.2012 04:42 15,1 C -0,7 C 0,0 UV-I 0,0 C 45 % 88 % 0 % 1020,1 hPa 0,0 l/m 0,0 km/h (0 Bft) 0 min 0 min 0,0 km/h (0 Bft)
01.04.2012 04:44 15,2 C -0,7 C 0,0 UV-I 0,0 C 45 % 88 % 0 % 1020,1 hPa 0,0 l/m 0,0 km/h (0 Bft) 0 min 0 min 0,0 km/h (0 Bft)
01.04.2012 04:46 15,1 C -0,7 C 0,0 UV-I 0,0 C 45 % 88 % 0 % 1020,0 hPa 0,0 l/m 0,0 km/h (0 Bft) 0 min 0 min 0,0 km/h (0 Bft)
01.04.2012 04:48 15,2 C -0,7 C 0,0 UV-I 0,0 C 45 % 88 % 0 % 1020,0 hPa 0,0 l/m 0,0 km/h (0 Bft) 0 min 0 min 0,0 km/h (0 Bft)
01.04.2012 04:50 15,2 C -0,7 C 0,0 UV-I 0,0 C 45 % 88 % 0 % 1020,0 hPa 0,0 l/m 0,0 km/h (0 Bft) 0 min 0 min 0,0 km/h (0 Bft)
01.04.2012 04:52 15,2 C -0,7 C 0,0 UV-I 0,0 C 45 % 88 % 0 % 1020,0 hPa 0,0 l/m 0,0 km/h (0 Bft) 0 min 0 min 0,0 km/h (0 Bft)
01.04.2012 04:54 15,2 C -0,8 C 0,0 UV-I 0,0 C 45 % 88 % 0 % 1020,0 hPa 0,0 l/m 0,0 km/h (0 Bft) 0 min 0 min 0,0 km/h (0 Bft)
01.04.2012 04:56 15,2 C -0,8 C 0,0 UV-I 0,0 C 45 % 88 % 0 % 1020,0 hPa 0,0 l/m 0,0 km/h (0 Bft) 0 min 0 min 0,0 km/h (0 Bft)
01.04.2012 04:58 15,2 C -0,8 C 0,0 UV-I 0,0 C 45 % 88 % 0 % 1020,0 hPa 0,0 l/m 0,0 km/h (0 Bft) 0 min 0 min 0,0 km/h (0 Bft)
01.04.2012 05:00 15,2 C -0,8 C 0,0 UV-I 0,0 C 45 % 88 % 0 % 1020,0 hPa 0,0 l/m 0,0 km/h (0 Bft) 0 min 0 min 0,0 km/h (0 Bft)
01.04.2012 05:02 15,2 C -0,8 C 0,0 UV-I 0,0 C 45 % 88 % 0 % 1020,0 hPa 0,0 l/m 0,0 km/h (0 Bft) 0 min 0 min 0,0 km/h (0 Bft)
01.04.2012 05:04 15,2 C -0,8 C 0,0 UV-I 0,0 C 45 % 88 % 0 % 1019,9 hPa 0,0 l/m 0,0 km/h (0 Bft) 0 min 0 min 0,0 km/h (0 Bft)
01.04.2012 05:06 15,1 C -0,8 C 0,0 UV-I 0,0 C 45 % 88 % 0 % 1019,9 hPa 0,0 l/m 0,0 km/h (0 Bft) 0 min 0 min 0,0 km/h (0 Bft)
01.04.2012 05:08 15,2 C -0,8 C 0,0 UV-I 0,0 C 45 % 88 % 0 % 1019,9 hPa 0,0 l/m 0,0 km/h (0 Bft) 0 min 0 min 0,0 km/h (0 Bft)
01.04.2012 05:10 15,1 C -0,8 C 0,0 UV-I 0,0 C 45 % 88 % 0 % 1019,9 hPa 0,0 l/m 0,0 km/h (0 Bft) 0 min 0 min 0,0 km/h (0 Bft)
01.04.2012 05:12 15,1 C -0,8 C 0,0 UV-I 0,0 C 45 % 88 % 0 % 1019,9 hPa 0,0 l/m 0,0 km/h (0 Bft) 0 min 0 min 0,0 km/h (0 Bft)
01.04.2012 05:14 15,1 C -0,7 C 0,0 UV-I 0,0 C 45 % 88 % 0 % 1019,9 hPa 0,0 l/m 0,0 km/h (0 Bft) 0 min 0 min 0,0 km/h (0 Bft)
01.04.2012 05:16 15,1 C -0,7 C 0,0 UV-I 0,0 C 45 % 88 % 0 % 1019,9 hPa 0,0 l/m 0,0 km/h (0 Bft) 0 min 0 min 0,0 km/h (0 Bft)
01.04.2012 05:18 15,1 C -0,7 C 0,0 UV-I 0,0 C 45 % 89 % 0 % 1019,9 hPa 0,0 l/m 0,0 km/h (0 Bft) 0 min 0 min 0,0 km/h (0 Bft)
01.04.2012 05:20 15,1 C -0,8 C 0,0 UV-I 0,0 C 45 % 89 % 0 % 1019,9 hPa 0,0 l/m 0,0 km/h (0 Bft) 0 min 0 min 0,0 km/h (0 Bft)
01.04.2012 05:22 15,1 C -0,7 C 0,0 UV-I 0,0 C 45 % 89 % 0 % 1019,9 hPa 0,0 l/m 0,0 km/h (0 Bft) 0 min 0 min 0,0 km/h (0 Bft)
01.04.2012 05:24 14,9 C -0,9 C 0,0 UV-I 0,0 C 45 % 88 % 0 % 1019,9 hPa 0,0 l/m 0,0 km/h (0 Bft) 0 min 2 min 0,0 km/h (0 Bft)
01.04.2012 05:26 15,1 C -0,9 C 0,0 UV-I 0,0 C 45 % 89 % 0 % 1019,9 hPa 0,0 l/m 0,0 km/h (0 Bft) 0 min 0 min 0,0 km/h (0 Bft)
01.04.2012 05:28 15,1 C -0,9 C 0,0 UV-I 0,0 C 45 % 89 % 0 % 1019,9 hPa 0,0 l/m 0,0 km/h (0 Bft) 0 min 0 min 0,0 km/h (0 Bft)
01.04.2012 05:30 14,9 C -0,9 C 0,0 UV-I 0,0 C 45 % 89 % 0 % 1019,9 hPa 0,0 l/m 0,0 km/h (0 Bft) 0 min 0 min 0,0 km/h (0 Bft)
01.04.2012 05:32 14,9 C -0,9 C 0,0 UV-I 0,0 C 45 % 89 % 0 % 1019,9 hPa 0,0 l/m 0,0 km/h (0 Bft) 0 min 0 min 0,0 km/h (0 Bft)
01.04.2012 05:34 14,9 C -0,9 C 0,0 UV-I 0,0 C 45 % 89 % 0 % 1019,9 hPa 0,0 l/m 0,0 km/h (0 Bft) 0 min 0 min 0,0 km/h (0 Bft)
01.04.2012 05:36 14,9 C -0,9 C 0,0 UV-I 0,0 C 45 % 89 % 0 % 1019,9 hPa 0,0 l/m 0,0 km/h (0 Bft) 0 min 0 min 0,0 km/h (0 Bft)
01.04.2012 05:38 15,0 C -0,9 C 0,0 UV-I 0,0 C 45 % 89 % 0 % 1019,9 hPa 0,0 l/m 0,0 km/h (0 Bft) 0 min 0 min 0,0 km/h (0 Bft)
01.04.2012 05:40 14,9 C -0,9 C 0,0 UV-I 0,0 C 45 % 89 % 0 % 1019,9 hPa 0,0 l/m 0,0 km/h (0 Bft) 0 min 0 min 0,0 km/h (0 Bft)
01.04.2012 05:42 15,0 C -1,0 C 0,0 UV-I 0,0 C 45 % 89 % 0 % 1019,9 hPa 0,0 l/m 0,0 km/h (0 Bft) 0 min 0 min 0,0 km/h (0 Bft)
01.04.2012 05:44 15,0 C -1,0 C 0,0 UV-I 0,0 C 45 % 89 % 0 % 1019,7 hPa 0,0 l/m 0,0 km/h (0 Bft) 0 min 0 min 0,0 km/h (0 Bft)
01.04.2012 05:46 15,0 C -1,0 C 0,0 UV-I 0,0 C 45 % 89 % 0 % 1019,7 hPa 0,0 l/m 0,0 km/h (0 Bft) 0 min 0 min 0,0 km/h (0 Bft)
01.04.2012 05:48 15,0 C -0,9 C 0,0 UV-I 0,0 C 45 % 89 % 0 % 1019,7 hPa 0,0 l/m 0,0 km/h (0 Bft) 0 min 0 min 0,0 km/h (0 Bft)
01.04.2012 05:50 15,0 C -1,0 C 0,0 UV-I 0,0 C 45 % 89 % 0 % 1019,7 hPa 0,0 l/m 0,0 km/h (0 Bft) 0 min 0 min 0,0 km/h (0 Bft)
01.04.2012 05:52 15,0 C -1,0 C 0,0 UV-I 0,0 C 45 % 89 % 0 % 1019,7 hPa 0,0 l/m 0,0 km/h (0 Bft) 0 min 0 min 0,0 km/h (0 Bft)
01.04.2012 05:54 15,0 C -1,0 C 0,0 UV-I 0,0 C 45 % 89 % 0 % 1019,7 hPa 0,0 l/m 0,0 km/h (0 Bft) 0 min 0 min 0,0 km/h (0 Bft)
01.04.2012 05:56 15,0 C -1,0 C 0,0 UV-I 0,0 C 45 % 89 % 0 % 1019,7 hPa 0,0 l/m 0,0 km/h (0 Bft) 0 min 0 min 0,0 km/h (0 Bft)
01.04.2012 05:58 15,0 C -0,9 C 0,0 UV-I 0,0 C 45 % 89 % 0 % 1019,7 hPa 0,0 l/m 0,0 km/h (0 Bft) 0 min 0 min 0,0 km/h (0 Bft)
01.04.2012 06:00 15,0 C -1,0 C 0,0 UV-I 0,0 C 45 % 89 % 0 % 1019,7 hPa 0,0 l/m 0,0 km/h (0 Bft) 0 min 0 min 0,0 km/h (0 Bft)
01.04.2012 06:02 15,0 C -1,0 C 0,0 UV-I 0,0 C 45 % 89 % 0 % 1019,7 hPa 0,0 l/m 0,0 km/h (0 Bft) 0 min 0 min 0,0 km/h (0 Bft)
01.04.2012 06:04 15,0 C -0,9 C 0,0 UV-I 0,0 C 45 % 89 % 0 % 1019,7 hPa 0,0 l/m 0,0 km/h (0 Bft) 0 min 0 min 0,0 km/h (0 Bft)
01.04.2012 06:06 15,0 C -0,9 C 0,0 UV-I 0,0 C 45 % 90 % 0 % 1019,7 hPa 0,0 l/m 0,0 km/h (0 Bft) 0 min 0 min 0,0 km/h (0 Bft)
01.04.2012 06:08 15,0 C -0,9 C 0,0 UV-I 0,0 C 45 % 90 % 0 % 1019,7 hPa 0,0 l/m 0,0 km/h (0 Bft) 0 min 0 min 0,0 km/h (0 Bft)
01.04.2012 06:10 14,8 C -0,9 C 0,0 UV-I 0,0 C 45 % 90 % 0 % 1019,7 hPa 0,0 l/m 0,0 km/h (0 Bft) 0 min 0 min 0,0 km/h (0 Bft)
01.04.2012 06:12 14,8 C -0,9 C 0,0 UV-I 0,0 C 45 % 90 % 0 % 1019,7 hPa 0,0 l/m 0,0 km/h (0 Bft) 0 min 0 min 0,0 km/h (0 Bft)
01.04.2012 06:14 14,8 C -0,9 C 0,0 UV-I 0,0 C 45 % 90 % 0 % 1019,7 hPa 0,0 l/m 0,0 km/h (0 Bft) 0 min 0 min 0,0 km/h (0 Bft)
01.04.2012 06:16 14,8 C -0,9 C 0,0 UV-I 0,0 C 45 % 90 % 0 % 1019,7 hPa 0,0 l/m 0,0 km/h (0 Bft) 0 min 0 min 0,0 km/h (0 Bft)
01.04.2012 06:18 14,8 C -0,9 C 0,0 UV-I 0,0 C 45 % 90 % 0 % 1019,7 hPa 0,0 l/m 0,0 km/h (0 Bft) 0 min 0 min 0,0 km/h (0 Bft)
01.04.2012 06:20 14,8 C -0,9 C 0,0 UV-I 0,0 C 45 % 90 % 0 % 1019,7 hPa 0,0 l/m 0,0 km/h (0 Bft) 0 min 0 min 0,0 km/h (0 Bft)
01.04.2012 06:22 14,8 C -0,9 C 0,0 UV-I 0,0 C 45 % 90 % 0 % 1019,7 hPa 0,0 l/m 0,0 km/h (0 Bft) 0 min 0 min 0,0 km/h (0 Bft)
01.04.2012 06:24 14,8 C -0,9 C 0,0 UV-I 0,0 C 45 % 90 % 0 % 1019,7 hPa 0,0 l/m 0,0 km/h (0 Bft) 0 min 0 min 0,0 km/h (0 Bft)
01.04.2012 06:26 14,8 C -0,9 C 0,0 UV-I 0,0 C 45 % 90 % 0 % 1020,1 hPa 0,0 l/m 0,0 km/h (0 Bft) 0 min 0 min 0,0 km/h (0 Bft)
01.04.2012 06:28 14,9 C -0,9 C 0,0 UV-I 0,0 C 45 % 90 % 0 % 1020,1 hPa 0,0 l/m 0,0 km/h (0 Bft) 0 min 0 min 0,0 km/h (0 Bft)
01.04.2012 06:30 14,9 C -0,9 C 0,0 UV-I 0,0 C 45 % 90 % 0 % 1020,1 hPa 0,0 l/m 0,0 km/h (0 Bft) 0 min 0 min 0,0 km/h (0 Bft)
01.04.2012 06:32 14,9 C -0,9 C 0,0 UV-I 0,0 C 45 % 90 % 0 % 1020,1 hPa 0,0 l/m 0,0 km/h (0 Bft) 0 min 0 min 0,0 km/h (0 Bft)
01.04.2012 06:34 14,9 C -1,0 C 0,0 UV-I 0,0 C 45 % 90 % 0 % 1020,1 hPa 0,0 l/m 0,0 km/h (0 Bft) 0 min 0 min 0,0 km/h (0 Bft)
01.04.2012 06:36 14,9 C -0,9 C 0,0 UV-I 0,0 C 45 % 90 % 0 % 1020,1 hPa 0,0 l/m 0,0 km/h (0 Bft) 0 min 0 min 0,0 km/h (0 Bft)
01.04.2012 06:38 14,8 C -0,9 C 0,0 UV-I 0,0 C 45 % 90 % 0 % 1020,1 hPa 0,0 l/m 0,0 km/h (0 Bft) 0 min 0 min 0,0 km/h (0 Bft)
01.04.2012 06:40 14,8 C -0,9 C 0,0 UV-I 0,0 C 45 % 90 % 0 % 1020,1 hPa 0,0 l/m 0,0 km/h (0 Bft) 0 min 0 min 0,0 km/h (0 Bft)
01.04.2012 06:42 14,8 C -0,9 C 0,0 UV-I 0,0 C 45 % 90 % 0 % 1020,1 hPa 0,0 l/m 0,0 km/h (0 Bft) 0 min 0 min 0,0 km/h (0 Bft)
01.04.2012 06:44 14,8 C -1,0 C 0,0 UV-I 0,0 C 45 % 90 % 0 % 1019,8 hPa 0,0 l/m 0,0 km/h (0 Bft) 0 min 0 min 0,0 km/h (0 Bft)
01.04.2012 06:46 14,8 C -0,9 C 0,0 UV-I 0,0 C 45 % 90 % 0 % 1019,8 hPa 0,0 l/m 0,0 km/h (0 Bft) 0 min 0 min 0,0 km/h (0 Bft)
01.04.2012 06:48 14,8 C -1,0 C 0,0 UV-I 0,0 C 45 % 90 % 0 % 1019,8 hPa 0,0 l/m 0,0 km/h (0 Bft) 0 min 0 min 0,0 km/h (0 Bft)
01.04.2012 06:50 14,8 C -1,0 C 0,0 UV-I 0,0 C 45 % 90 % 0 % 1019,8 hPa 0,0 l/m 0,0 km/h (0 Bft) 0 min 0 min 0,0 km/h (0 Bft)
01.04.2012 06:52 14,8 C -0,9 C 0,0 UV-I 0,0 C 45 % 90 % 0 % 1019,8 hPa 0,0 l/m 0,0 km/h (0 Bft) 0 min 0 min 0,0 km/h (0 Bft)
01.04.2012 06:54 14,8 C -0,9 C 0,0 UV-I 0,0 C 45 % 90 % 0 % 1019,8 hPa 0,0 l/m 0,0 km/h (0 Bft) 0 min 0 min 0,0 km/h (0 Bft)
01.04.2012 06:56 14,8 C -1,0 C 0,0 UV-I 0,0 C 45 % 90 % 0 % 1019,8 hPa 0,0 l/m 0,0 km/h (0 Bft) 0 min 0 min 0,0 km/h (0 Bft)
01.04.2012 06:58 14,8 C -0,9 C 0,0 UV-I 0,0 C 45 % 90 % 0 % 1019,8 hPa 0,0 l/m 0,0 km/h (0 Bft) 0 min 0 min 0,0 km/h (0 Bft)
01.04.2012 07:00 14,8 C -0,9 C 0,0 UV-I 0,0 C 45 % 90 % 0 % 1019,8 hPa 0,0 l/m 0,0 km/h (0 Bft) 0 min 0 min 0,0 km/h (0 Bft)
01.04.2012 07:02 14,8 C -1,0 C 0,0 UV-I 0,0 C 45 % 90 % 0 % 1019,8 hPa 0,0 l/m 0,0 km/h (0 Bft) 0 min 0 min 0,0 km/h (0 Bft)
01.04.2012 07:04 14,8 C -0,9 C 0,0 UV-I 0,0 C 45 % 90 % 0 % 1019,9 hPa 0,0 l/m 0,0 km/h (0 Bft) 0 min 0 min 0,0 km/h (0 Bft)
01.04.2012 07:06 14,8 C -0,9 C 0,0 UV-I 0,0 C 45 % 90 % 0 % 1019,9 hPa 0,0 l/m 0,0 km/h (0 Bft) 0 min 0 min 0,0 km/h (0 Bft)
01.04.2012 07:08 14,8 C -0,9 C 0,0 UV-I 0,0 C 45 % 90 % 0 % 1019,9 hPa 0,0 l/m 0,0 km/h (0 Bft) 0 min 0 min 0,0 km/h (0 Bft)
01.04.2012 07:10 14,8 C -0,9 C 0,0 UV-I 0,0 C 45 % 90 % 0 % 1019,9 hPa 0,0 l/m 0,0 km/h (0 Bft) 0 min 0 min 0,0 km/h (0 Bft)
01.04.2012 07:12 14,8 C -0,9 C 0,0 UV-I 0,0 C 45 % 90 % 0 % 1019,9 hPa 0,0 l/m 0,0 km/h (0 Bft) 0 min 0 min 0,0 km/h (0 Bft)
01.04.2012 07:14 14,8 C -0,9 C 0,0 UV-I 0,0 C 45 % 91 % 0 % 1019,9 hPa 0,0 l/m 0,0 km/h (0 Bft) 0 min 0 min 0,0 km/h (0 Bft)
01.04.2012 07:16 14,8 C -0,9 C 0,0 UV-I 0,0 C 45 % 91 % 0 % 1019,9 hPa 0,0 l/m 0,0 km/h (0 Bft) 0 min 0 min 0,0 km/h (0 Bft)
01.04.2012 07:18 14,8 C -0,9 C 0,0 UV-I 0,0 C 45 % 91 % 0 % 1019,9 hPa 0,0 l/m 0,0 km/h (0 Bft) 0 min 0 min 0,0 km/h (0 Bft)
01.04.2012 07:20 14,8 C -0,9 C 0,0 UV-I 0,0 C 45 % 90 % 0 % 1019,9 hPa 0,0 l/m 0,0 km/h (0 Bft) 0 min 0 min 0,0 km/h (0 Bft)
01.04.2012 07:22 14,8 C -0,9 C 0,0 UV-I 0,0 C 45 % 90 % 0 % 1019,9 hPa 0,0 l/m 0,0 km/h (0 Bft) 0 min 0 min 0,0 km/h (0 Bft)
01.04.2012 07:24 14,8 C -1,0 C 0,0 UV-I 0,0 C 45 % 90 % 0 % 1019,9 hPa 0,0 l/m 0,0 km/h (0 Bft) 0 min 0 min 0,0 km/h (0 Bft)
01.04.2012 07:26 14,8 C -1,0 C 0,0 UV-I 0,0 C 45 % 90 % 0 % 1020,1 hPa 0,0 l/m 0,0 km/h (0 Bft) 0 min 0 min 0,0 km/h (0 Bft)
01.04.2012 07:28 14,8 C -0,9 C 0,0 UV-I 0,0 C 45 % 90 % 0 % 1020,1 hPa 0,0 l/m 0,0 km/h (0 Bft) 0 min 0 min 0,0 km/h (0 Bft)
01.04.2012 07:30 14,6 C -0,9 C 0,0 UV-I 0,0 C 45 % 90 % 0 % 1020,1 hPa 0,0 l/m 0,0 km/h (0 Bft) 0 min 0 min 0,0 km/h (0 Bft)
01.04.2012 07:32 14,6 C -0,9 C 0,0 UV-I 0,0 C 45 % 90 % 0 % 1020,1 hPa 0,0 l/m 0,0 km/h (0 Bft) 0 min 0 min 0,0 km/h (0 Bft)
01.04.2012 07:34 14,6 C -0,9 C 0,0 UV-I 0,0 C 45 % 91 % 0 % 1020,1 hPa 0,0 l/m 0,0 km/h (0 Bft) 0 min 0 min 0,0 km/h (0 Bft)
01.04.2012 07:36 14,6 C -0,9 C 0,0 UV-I 0,0 C 45 % 91 % 0 % 1020,1 hPa 0,0 l/m 0,0 km/h (0 Bft) 0 min 0 min 0,0 km/h (0 Bft)
01.04.2012 07:38 14,6 C -0,9 C 0,0 UV-I 0,0 C 45 % 91 % 0 % 1020,1 hPa 0,0 l/m 0,0 km/h (0 Bft) 0 min 0 min 0,0 km/h (0 Bft)
01.04.2012 07:40 14,8 C -1,0 C 0,0 UV-I 0,0 C 45 % 91 % 0 % 1020,1 hPa 0,0 l/m 0,0 km/h (0 Bft) 0 min 0 min 0,0 km/h (0 Bft)
01.04.2012 07:42 14,6 C -0,9 C 0,0 UV-I 0,0 C 45 % 91 % 0 % 1020,1 hPa 0,0 l/m 0,0 km/h (0 Bft) 0 min 0 min 0,0 km/h (0 Bft)
01.04.2012 07:44 14,6 C -0,9 C 0,0 UV-I 0,0 C 45 % 91 % 0 % 1020,1 hPa 0,0 l/m 0,0 km/h (0 Bft) 0 min 0 min 0,0 km/h (0 Bft)
01.04.2012 07:46 14,6 C -0,9 C 0,0 UV-I 0,0 C 45 % 91 % 0 % 1020,1 hPa 0,0 l/m 0,0 km/h (0 Bft) 0 min 0 min 0,0 km/h (0 Bft)
01.04.2012 07:48 14,6 C -0,9 C 0,0 UV-I 0,0 C 45 % 91 % 0 % 1020,1 hPa 0,0 l/m 0,0 km/h (0 Bft) 0 min 0 min 0,0 km/h (0 Bft)
01.04.2012 07:50 14,6 C -0,9 C 0,0 UV-I 0,0 C 45 % 91 % 0 % 1020,1 hPa 0,0 l/m 0,0 km/h (0 Bft) 0 min 0 min 0,0 km/h (0 Bft)
01.04.2012 07:52 14,6 C -0,9 C 0,0 UV-I 0,0 C 45 % 91 % 0 % 1020,1 hPa 0,0 l/m 0,0 km/h (0 Bft) 0 min 0 min 0,0 km/h (0 Bft)
01.04.2012 07:54 14,7 C -1,0 C 0,0 UV-I 0,0 C 45 % 91 % 0 % 1020,1 hPa 0,0 l/m 0,0 km/h (0 Bft) 0 min 0 min 0,0 km/h (0 Bft)
01.04.2012 07:56 14,6 C -1,0 C 0,0 UV-I 0,0 C 45 % 91 % 0 % 1020,1 hPa 0,0 l/m 0,0 km/h (0 Bft) 0 min 0 min 0,0 km/h (0 Bft)
01.04.2012 07:58 14,6 C -1,0 C 0,0 UV-I 0,0 C 45 % 91 % 0 % 1020,1 hPa 0,0 l/m 0,0 km/h (0 Bft) 0 min 0 min 0,0 km/h (0 Bft)
01.04.2012 08:00 14,6 C -0,9 C 0,0 UV-I 0,0 C 45 % 91 % 0 % 1020,1 hPa 0,0 l/m 0,0 km/h (0 Bft) 0 min 0 min 0,0 km/h (0 Bft)
01.04.2012 08:02 14,6 C -0,9 C 0,0 UV-I 0,0 C 45 % 91 % 0 % 1020,1 hPa 0,0 l/m 0,0 km/h (0 Bft) 0 min 0 min 0,0 km/h (0 Bft)
01.04.2012 08:04 14,6 C -0,9 C 0,0 UV-I 0,0 C 45 % 91 % 0 % 1020,0 hPa 0,0 l/m 0,0 km/h (0 Bft) 0 min 0 min 0,0 km/h (0 Bft)
01.04.2012 08:06 14,8 C -0,7 C 0,0 UV-I 0,0 C 45 % 91 % 0 % 1020,0 hPa 0,0 l/m 0,0 km/h (0 Bft) 0 min 0 min 0,0 km/h (0 Bft)
01.04.2012 08:08 14,6 C -0,8 C 0,0 UV-I 0,0 C 45 % 91 % 0 % 1020,0 hPa 0,0 l/m 0,0 km/h (0 Bft) 0 min 0 min 5,2 km/h (1 Bft)
01.04.2012 08:10 14,6 C -0,7 C 0,0 UV-I 0,0 C 45 % 92 % 0 % 1020,0 hPa 0,0 l/m 0,4 km/h (0 Bft) 0 min 0 min 5,2 km/h (1 Bft)
01.04.2012 08:12 14,6 C -0,5 C 0,0 UV-I 0,0 C 45 % 92 % 0 % 1020,0 hPa 0,0 l/m 0,4 km/h (0 Bft) 0 min 0 min 0,0 km/h (0 Bft)
01.04.2012 08:14 14,6 C -0,5 C 0,0 UV-I 0,0 C 45 % 92 % 0 % 1020,0 hPa 0,0 l/m 0,4 km/h (0 Bft) 0 min 0 min 0,0 km/h (0 Bft)
01.04.2012 08:16 14,6 C -0,5 C 0,0 UV-I 0,0 C 45 % 92 % 0 % 1020,0 hPa 0,0 l/m 0,4 km/h (0 Bft) 0 min 0 min 4,0 km/h (1 Bft)
01.04.2012 08:18 14,6 C -0,5 C 0,0 UV-I 0,0 C 45 % 92 % 0 % 1020,0 hPa 0,0 l/m 0,4 km/h (0 Bft) 0 min 0 min 4,0 km/h (1 Bft)
01.04.2012 08:20 14,6 C -0,5 C 0,0 UV-I 0,0 C 45 % 92 % 0 % 1020,0 hPa 0,0 l/m 0,4 km/h (0 Bft) 0 min 0 min 0,0 km/h (0 Bft)
01.04.2012 08:22 14,6 C -0,4 C 0,0 UV-I 0,0 C 45 % 92 % 0 % 1020,0 hPa 0,0 l/m 0,0 km/h (0 Bft) 0 min 0 min 0,0 km/h (0 Bft)
01.04.2012 08:24 14,6 C -0,3 C 0,0 UV-I 0,0 C 45 % 92 % 0 % 1020,0 hPa 0,0 l/m 0,4 km/h (0 Bft) 0 min 0 min 4,8 km/h (1 Bft)
01.04.2012 08:26 14,6 C -0,3 C 0,0 UV-I 0,0 C 45 % 93 % 0 % 1020,3 hPa 0,0 l/m 0,0 km/h (0 Bft) 0 min 0 min 4,8 km/h (1 Bft)
01.04.2012 08:28 14,6 C -0,2 C 0,0 UV-I 0,0 C 45 % 93 % 0 % 1020,3 hPa 0,0 l/m 0,0 km/h (0 Bft) 0 min 0 min 0,0 km/h (0 Bft)
01.04.2012 08:30 14,6 C -0,1 C 0,0 UV-I 0,0 C 45 % 93 % 0 % 1020,3 hPa 0,0 l/m 0,4 km/h (0 Bft) 0 min 0 min 0,0 km/h (0 Bft)
01.04.2012 08:32 14,6 C -0,1 C 0,0 UV-I 0,0 C 45 % 93 % 0 % 1020,3 hPa 0,0 l/m 0,4 km/h (0 Bft) 0 min 0 min 0,0 km/h (0 Bft)
01.04.2012 08:34 14,6 C 0,1 C 0,0 UV-I 0,0 C 45 % 93 % 0 % 1020,3 hPa 0,0 l/m 0,4 km/h (0 Bft) 0 min 0 min 0,0 km/h (0 Bft)
01.04.2012 08:36 14,7 C 0,1 C 0,0 UV-I 0,0 C 45 % 93 % 0 % 1020,3 hPa 0,0 l/m 0,4 km/h (0 Bft) 0 min 0 min 0,0 km/h (0 Bft)
01.04.2012 08:38 14,6 C 0,2 C 0,0 UV-I 0,0 C 45 % 93 % 0 % 1020,3 hPa 0,0 l/m 0,4 km/h (0 Bft) 0 min 0 min 0,0 km/h (0 Bft)
01.04.2012 08:40 14,6 C 0,2 C 0,0 UV-I 0,0 C 45 % 93 % 0 % 1020,3 hPa 0,0 l/m 0,0 km/h (0 Bft) 0 min 0 min 0,0 km/h (0 Bft)
01.04.2012 08:42 14,6 C 0,3 C 0,0 UV-I 0,0 C 46 % 93 % 0 % 1020,3 hPa 0,0 l/m 0,0 km/h (0 Bft) 0 min 0 min 0,0 km/h (0 Bft)
01.04.2012 08:44 14,6 C 0,4 C 0,0 UV-I 0,0 C 45 % 93 % 0 % 1020,2 hPa 0,0 l/m 0,0 km/h (0 Bft) 0 min 0 min 0,0 km/h (0 Bft)
01.04.2012 08:46 14,6 C 0,5 C 0,0 UV-I 0,0 C 46 % 93 % 0 % 1020,2 hPa 0,0 l/m 0,0 km/h (0 Bft) 0 min 0 min 0,0 km/h (0 Bft)
01.04.2012 08:48 14,6 C 0,5 C 0,0 UV-I 0,0 C 46 % 93 % 0 % 1020,2 hPa 0,0 l/m 0,0 km/h (0 Bft) 0 min 0 min 0,0 km/h (0 Bft)
01.04.2012 08:50 14,6 C 0,5 C 0,0 UV-I 0,0 C 46 % 93 % 0 % 1020,2 hPa 0,0 l/m 0,0 km/h (0 Bft) 0 min 0 min 0,0 km/h (0 Bft)
01.04.2012 08:52 14,6 C 0,5 C 0,0 UV-I 1,0 C 46 % 93 % 29 % 1020,2 hPa 0,0 l/m 0,0 km/h (0 Bft) 0 min 0 min 0,0 km/h (0 Bft)
01.04.2012 08:54 14,6 C 0,7 C 0,0 UV-I 1,9 C 46 % 93 % 54 % 1020,2 hPa 0,0 l/m 0,0 km/h (0 Bft) 0 min 0 min 0,0 km/h (0 Bft)
01.04.2012 08:56 14,6 C 0,7 C 0,0 UV-I 3,2 C 46 % 93 % 91 % 1020,2 hPa 0,0 l/m 0,0 km/h (0 Bft) 2 min 0 min 0,0 km/h (0 Bft)
01.04.2012 08:58 14,6 C 0,8 C 0,0 UV-I 4,2 C 46 % 93 % 100 % 1020,2 hPa 0,0 l/m 0,0 km/h (0 Bft) 2 min 0 min 0,0 km/h (0 Bft)
01.04.2012 09:00 14,6 C 0,8 C 0,0 UV-I 4,8 C 46 % 93 % 100 % 1020,2 hPa 0,0 l/m 0,0 km/h (0 Bft) 2 min 0 min 0,0 km/h (0 Bft)
01.04.2012 09:02 14,8 C 1,0 C 0,0 UV-I 5,4 C 46 % 93 % 100 % 1020,2 hPa 0,0 l/m 0,0 km/h (0 Bft) 2 min 0 min 0,0 km/h (0 Bft)
01.04.2012 09:04 14,6 C 1,1 C 0,0 UV-I 6,4 C 46 % 93 % 100 % 1020,4 hPa 0,0 l/m 0,0 km/h (0 Bft) 2 min 0 min 0,0 km/h (0 Bft)
01.04.2012 09:06 14,8 C 1,2 C 0,0 UV-I 6,6 C 46 % 93 % 100 % 1020,4 hPa 0,0 l/m 0,0 km/h (0 Bft) 2 min 0 min 0,0 km/h (0 Bft)
01.04.2012 09:08 14,6 C 1,3 C 0,0 UV-I 7,3 C 46 % 93 % 100 % 1020,4 hPa 0,0 l/m 0,0 km/h (0 Bft) 2 min 0 min 0,0 km/h (0 Bft)
01.04.2012 09:10 14,8 C 1,5 C 0,0 UV-I 7,9 C 46 % 93 % 100 % 1020,4 hPa 0,0 l/m 0,0 km/h (0 Bft) 2 min 0 min 0,0 km/h (0 Bft)
01.04.2012 09:12 14,8 C 1,6 C 0,0 UV-I 8,4 C 46 % 93 % 100 % 1020,4 hPa 0,0 l/m 0,4 km/h (0 Bft) 2 min 0 min 0,0 km/h (0 Bft)
01.04.2012 09:14 14,8 C 1,6 C 0,0 UV-I 8,6 C 46 % 93 % 100 % 1020,4 hPa 0,0 l/m 0,4 km/h (0 Bft) 2 min 0 min 0,0 km/h (0 Bft)
01.04.2012 09:16 14,8 C 1,8 C 0,0 UV-I 8,8 C 46 % 93 % 100 % 1020,4 hPa 0,0 l/m 0,4 km/h (0 Bft) 2 min 0 min 0,0 km/h (0 Bft)
01.04.2012 09:18 14,8 C 2,0 C 0,1 UV-I 9,0 C 46 % 93 % 100 % 1020,4 hPa 0,0 l/m 0,4 km/h (0 Bft) 2 min 0 min 0,0 km/h (0 Bft)
01.04.2012 09:20 14,8 C 2,0 C 0,1 UV-I 9,3 C 46 % 93 % 100 % 1020,4 hPa 0,0 l/m 0,8 km/h (0 Bft) 2 min 0 min 0,0 km/h (0 Bft)
01.04.2012 09:22 14,8 C 2,2 C 0,2 UV-I 9,3 C 46 % 93 % 100 % 1020,4 hPa 0,0 l/m 0,4 km/h (0 Bft) 2 min 0 min 0,0 km/h (0 Bft)
01.04.2012 09:24 14,8 C 2,4 C 0,2 UV-I 9,4 C 46 % 93 % 100 % 1020,5 hPa 0,0 l/m 0,4 km/h (0 Bft) 2 min 0 min 0,0 km/h (0 Bft)
01.04.2012 09:26 14,8 C 2,7 C 0,2 UV-I 9,4 C 46 % 93 % 100 % 1020,5 hPa 0,0 l/m 0,8 km/h (0 Bft) 2 min 0 min 6,0 km/h (2 Bft)
01.04.2012 09:28 14,8 C 2,8 C 0,2 UV-I 9,5 C 46 % 93 % 100 % 1020,5 hPa 0,0 l/m 0,8 km/h (0 Bft) 2 min 0 min 6,0 km/h (2 Bft)
01.04.2012 09:30 14,8 C 2,8 C 0,2 UV-I 9,8 C 46 % 93 % 100 % 1020,5 hPa 0,0 l/m 1,6 km/h (1 Bft) 2 min 0 min 10,0 km/h (2 Bft)
01.04.2012 09:32 14,8 C 2,9 C 0,2 UV-I 9,7 C 46 % 92 % 100 % 1020,5 hPa 0,0 l/m 2,0 km/h (1 Bft) 2 min 0 min 10,0 km/h (2 Bft)
01.04.2012 09:34 14,8 C 3,3 C 0,2 UV-I 9,2 C 46 % 92 % 100 % 1020,5 hPa 0,0 l/m 2,4 km/h (1 Bft) 2 min 0 min 4,4 km/h (1 Bft)
01.04.2012 09:36 14,8 C 3,3 C 0,2 UV-I 9,2 C 46 % 91 % 100 % 1020,5 hPa 0,0 l/m 3,2 km/h (1 Bft) 2 min 0 min 4,8 km/h (1 Bft)
01.04.2012 09:38 14,8 C 3,5 C 0,3 UV-I 9,1 C 46 % 90 % 100 % 1020,5 hPa 0,0 l/m 3,6 km/h (1 Bft) 2 min 0 min 10,0 km/h (2 Bft)
01.04.2012 09:40 14,8 C 3,6 C 0,3 UV-I 9,0 C 46 % 89 % 100 % 1020,5 hPa 0,0 l/m 4,0 km/h (1 Bft) 2 min 0 min 6,4 km/h (2 Bft)
01.04.2012 09:42 14,8 C 3,7 C 0,4 UV-I 9,1 C 46 % 90 % 100 % 1020,5 hPa 0,0 l/m 3,2 km/h (1 Bft) 2 min 0 min 4,8 km/h (1 Bft)
01.04.2012 09:44 14,8 C 3,9 C 0,4 UV-I 9,1 C 46 % 90 % 100 % 1020,4 hPa 0,0 l/m 2,8 km/h (1 Bft) 2 min 0 min 4,0 km/h (1 Bft)
01.04.2012 09:46 14,8 C 4,1 C 0,4 UV-I 9,2 C 46 % 90 % 100 % 1020,4 hPa 0,0 l/m 2,8 km/h (1 Bft) 2 min 0 min 4,4 km/h (1 Bft)
01.04.2012 09:48 14,8 C 4,0 C 0,5 UV-I 9,7 C 46 % 90 % 100 % 1020,4 hPa 0,0 l/m 2,0 km/h (1 Bft) 2 min 0 min 4,4 km/h (1 Bft)
01.04.2012 09:50 14,8 C 4,3 C 0,5 UV-I 9,6 C 46 % 90 % 100 % 1020,4 hPa 0,0 l/m 1,6 km/h (1 Bft) 2 min 0 min 7,6 km/h (2 Bft)
01.04.2012 09:52 14,8 C 4,3 C 0,6 UV-I 9,8 C 46 % 89 % 100 % 1020,4 hPa 0,0 l/m 1,2 km/h (1 Bft) 2 min 0 min 7,6 km/h (2 Bft)
01.04.2012 09:54 14,8 C 4,4 C 0,6 UV-I 9,7 C 46 % 87 % 100 % 1020,4 hPa 0,0 l/m 2,0 km/h (1 Bft) 2 min 0 min 9,6 km/h (2 Bft)
01.04.2012 09:56 14,8 C 4,4 C 0,6 UV-I 9,8 C 46 % 86 % 100 % 1020,4 hPa 0,0 l/m 2,4 km/h (1 Bft) 2 min 0 min 9,6 km/h (2 Bft)
01.04.2012 09:58 14,8 C 4,5 C 0,9 UV-I 9,6 C 45 % 86 % 100 % 1020,4 hPa 0,0 l/m 2,8 km/h (1 Bft) 2 min 0 min 9,2 km/h (2 Bft)
01.04.2012 10:00 14,8 C 4,7 C 0,9 UV-I 9,5 C 46 % 87 % 100 % 1020,4 hPa 0,0 l/m 2,8 km/h (1 Bft) 2 min 0 min 5,2 km/h (1 Bft)
01.04.2012 10:02 14,8 C 4,8 C 1,0 UV-I 9,6 C 45 % 86 % 100 % 1020,4 hPa 0,0 l/m 2,8 km/h (1 Bft) 2 min 0 min 5,2 km/h (1 Bft)
01.04.2012 10:04 14,8 C 4,8 C 1,0 UV-I 9,7 C 45 % 86 % 100 % 1020,1 hPa 0,0 l/m 2,8 km/h (1 Bft) 2 min 0 min 8,4 km/h (2 Bft)
01.04.2012 10:06 14,8 C 5,1 C 1,0 UV-I 9,4 C 45 % 86 % 100 % 1020,1 hPa 0,0 l/m 3,2 km/h (1 Bft) 2 min 0 min 8,4 km/h (2 Bft)
01.04.2012 10:08 14,8 C 5,1 C 1,1 UV-I 9,6 C 45 % 86 % 100 % 1020,1 hPa 0,0 l/m 2,0 km/h (1 Bft) 2 min 0 min 8,0 km/h (2 Bft)
01.04.2012 10:10 14,8 C 5,2 C 1,1 UV-I 9,7 C 45 % 84 % 100 % 1020,1 hPa 0,0 l/m 3,2 km/h (1 Bft) 2 min 0 min 5,6 km/h (1 Bft)
01.04.2012 10:12 14,8 C 5,2 C 1,2 UV-I 9,7 C 45 % 84 % 100 % 1020,1 hPa 0,0 l/m 3,2 km/h (1 Bft) 2 min 0 min 5,6 km/h (1 Bft)
01.04.2012 10:14 14,8 C 5,2 C 1,2 UV-I 9,8 C 45 % 83 % 100 % 1020,1 hPa 0,0 l/m 3,6 km/h (1 Bft) 2 min 0 min 5,6 km/h (1 Bft)
01.04.2012 10:16 14,8 C 5,3 C 1,2 UV-I 9,7 C 45 % 84 % 100 % 1020,1 hPa 0,0 l/m 3,2 km/h (1 Bft) 2 min 0 min 4,0 km/h (1 Bft)
01.04.2012 10:18 14,8 C 5,5 C 1,2 UV-I 9,7 C 45 % 84 % 100 % 1020,1 hPa 0,0 l/m 2,8 km/h (1 Bft) 2 min 0 min 12,0 km/h (2 Bft)
01.04.2012 10:20 14,8 C 5,6 C 1,2 UV-I 9,9 C 45 % 84 % 100 % 1020,1 hPa 0,0 l/m 2,4 km/h (1 Bft) 2 min 0 min 4,0 km/h (1 Bft)
01.04.2012 10:22 14,8 C 5,6 C 1,2 UV-I 9,9 C 45 % 82 % 100 % 1020,1 hPa 0,0 l/m 2,4 km/h (1 Bft) 2 min 0 min 8,4 km/h (2 Bft)
01.04.2012 10:24 14,8 C 5,7 C 1,2 UV-I 9,7 C 45 % 82 % 100 % 1020,1 hPa 0,0 l/m 2,0 km/h (1 Bft) 2 min 0 min 8,4 km/h (2 Bft)
01.04.2012 10:26 14,8 C 5,7 C 1,2 UV-I 9,9 C 45 % 82 % 100 % 1020,3 hPa 0,0 l/m 2,0 km/h (1 Bft) 2 min 0 min 0,0 km/h (0 Bft)
01.04.2012 10:28 14,9 C 5,9 C 1,6 UV-I 9,8 C 45 % 82 % 100 % 1020,3 hPa 0,0 l/m 2,4 km/h (1 Bft) 2 min 0 min 12,4 km/h (3 Bft)
01.04.2012 10:30 14,8 C 5,9 C 1,6 UV-I 10,0 C 45 % 82 % 100 % 1020,3 hPa 0,0 l/m 2,4 km/h (1 Bft) 2 min 0 min 0,0 km/h (0 Bft)
01.04.2012 10:32 14,8 C 6,0 C 1,6 UV-I 9,9 C 45 % 81 % 100 % 1020,3 hPa 0,0 l/m 1,6 km/h (1 Bft) 2 min 0 min 5,6 km/h (1 Bft)
01.04.2012 10:34 14,9 C 6,1 C 1,6 UV-I 9,8 C 45 % 81 % 100 % 1020,3 hPa 0,0 l/m 1,2 km/h (1 Bft) 2 min 0 min 6,4 km/h (2 Bft)
01.04.2012 10:36 14,8 C 6,3 C 1,6 UV-I 9,8 C 45 % 81 % 100 % 1020,3 hPa 0,0 l/m 1,2 km/h (1 Bft) 2 min 0 min 6,4 km/h (2 Bft)
01.04.2012 10:38 14,8 C 6,4 C 1,9 UV-I 9,7 C 45 % 81 % 100 % 1020,3 hPa 0,0 l/m 1,6 km/h (1 Bft) 2 min 0 min 5,2 km/h (1 Bft)
01.04.2012 10:40 14,8 C 6,4 C 1,9 UV-I 9,9 C 45 % 80 % 100 % 1020,3 hPa 0,0 l/m 1,6 km/h (1 Bft) 2 min 0 min 7,6 km/h (2 Bft)
01.04.2012 10:42 14,8 C 6,7 C 2,2 UV-I 9,6 C 45 % 79 % 100 % 1020,3 hPa 0,0 l/m 3,2 km/h (1 Bft) 2 min 0 min 11,2 km/h (2 Bft)
01.04.2012 10:44 14,8 C 6,7 C 2,2 UV-I 9,4 C 45 % 78 % 100 % 1020,4 hPa 0,0 l/m 3,2 km/h (1 Bft) 2 min 0 min 11,2 km/h (2 Bft)
01.04.2012 10:46 15,0 C 6,7 C 2,2 UV-I 9,0 C 45 % 78 % 100 % 1020,4 hPa 0,0 l/m 3,6 km/h (1 Bft) 2 min 0 min 6,8 km/h (2 Bft)
01.04.2012 10:48 15,0 C 6,6 C 1,7 UV-I 8,7 C 45 % 77 % 100 % 1020,4 hPa 0,0 l/m 3,2 km/h (1 Bft) 2 min 0 min 12,8 km/h (3 Bft)
01.04.2012 10:50 15,0 C 6,5 C 1,7 UV-I 8,5 C 45 % 78 % 100 % 1020,4 hPa 0,0 l/m 4,0 km/h (1 Bft) 2 min 0 min 8,0 km/h (2 Bft)
01.04.2012 10:52 15,0 C 6,7 C 2,3 UV-I 8,1 C 45 % 77 % 100 % 1020,4 hPa 0,0 l/m 4,4 km/h (1 Bft) 2 min 0 min 15,7 km/h (3 Bft)
01.04.2012 10:54 15,0 C 6,5 C 2,3 UV-I 8,3 C 45 % 76 % 100 % 1020,4 hPa 0,0 l/m 5,2 km/h (1 Bft) 2 min 0 min 15,7 km/h (3 Bft)
01.04.2012 10:56 15,0 C 6,7 C 2,3 UV-I 8,3 C 46 % 75 % 100 % 1020,4 hPa 0,0 l/m 5,6 km/h (1 Bft) 2 min 0 min 8,4 km/h (2 Bft)
01.04.2012 10:58 14,9 C 6,7 C 2,9 UV-I 8,6 C 45 % 74 % 100 % 1020,4 hPa 0,0 l/m 6,4 km/h (2 Bft) 2 min 0 min 16,5 km/h (3 Bft)
01.04.2012 11:00 15,0 C 6,7 C 2,9 UV-I 8,7 C 45 % 75 % 100 % 1020,4 hPa 0,0 l/m 6,4 km/h (2 Bft) 2 min 0 min 5,2 km/h (1 Bft)
01.04.2012 11:02 14,9 C 6,9 C 2,4 UV-I 8,3 C 45 % 75 % 100 % 1020,4 hPa 0,0 l/m 5,6 km/h (1 Bft) 2 min 0 min 4,4 km/h (1 Bft)
01.04.2012 11:04 15,1 C 6,8 C 2,4 UV-I 8,7 C 45 % 75 % 100 % 1020,4 hPa 0,0 l/m 5,2 km/h (1 Bft) 2 min 0 min 7,2 km/h (2 Bft)
01.04.2012 11:06 14,9 C 7,0 C 2,4 UV-I 8,7 C 45 % 75 % 100 % 1020,1 hPa 0,0 l/m 4,4 km/h (1 Bft) 2 min 0 min 7,2 km/h (2 Bft)
01.04.2012 11:08 15,1 C 7,1 C 2,2 UV-I 8,3 C 45 % 75 % 100 % 1020,1 hPa 0,0 l/m 4,8 km/h (1 Bft) 2 min 0 min 12,8 km/h (3 Bft)
01.04.2012 11:10 15,1 C 7,1 C 2,2 UV-I 7,3 C 45 % 73 % 100 % 1020,1 hPa 0,0 l/m 5,6 km/h (1 Bft) 2 min 0 min 12,8 km/h (3 Bft)
01.04.2012 11:12 15,1 C 7,1 C 0,9 UV-I 6,4 C 45 % 73 % 100 % 1020,1 hPa 0,0 l/m 5,6 km/h (1 Bft) 2 min 0 min 12,4 km/h (3 Bft)
01.04.2012 11:14 15,1 C 7,1 C 0,9 UV-I 5,4 C 45 % 74 % 100 % 1020,1 hPa 0,0 l/m 6,4 km/h (2 Bft) 2 min 0 min 8,0 km/h (2 Bft)
01.04.2012 11:16 15,1 C 6,9 C 0,9 UV-I 5,0 C 45 % 74 % 100 % 1020,1 hPa 0,0 l/m 6,0 km/h (2 Bft) 2 min 0 min 6,8 km/h (2 Bft)
01.04.2012 11:18 15,2 C 6,9 C 2,6 UV-I 5,3 C 45 % 73 % 100 % 1020,1 hPa 0,0 l/m 5,6 km/h (1 Bft) 2 min 0 min 4,8 km/h (1 Bft)
01.04.2012 11:20 15,2 C 7,0 C 2,6 UV-I 6,1 C 45 % 73 % 100 % 1020,1 hPa 0,0 l/m 4,4 km/h (1 Bft) 2 min 0 min 6,0 km/h (2 Bft)
01.04.2012 11:22 15,2 C 7,1 C 4,0 UV-I 6,7 C 45 % 73 % 100 % 1020,1 hPa 0,0 l/m 4,8 km/h (1 Bft) 2 min 0 min 21,7 km/h (4 Bft)
01.04.2012 11:24 15,2 C 7,1 C 4,0 UV-I 7,4 C 45 % 72 % 100 % 1020,1 hPa 0,0 l/m 5,6 km/h (1 Bft) 2 min 0 min 21,7 km/h (4 Bft)
01.04.2012 11:26 15,2 C 7,2 C 4,0 UV-I 7,8 C 45 % 71 % 100 % 1020,1 hPa 0,0 l/m 6,0 km/h (2 Bft) 2 min 0 min 9,6 km/h (2 Bft)
01.04.2012 11:28 15,2 C 7,3 C 4,3 UV-I 8,0 C 45 % 71 % 100 % 1020,1 hPa 0,0 l/m 6,4 km/h (2 Bft) 2 min 0 min 21,7 km/h (4 Bft)
01.04.2012 11:30 15,2 C 7,4 C 4,3 UV-I 8,3 C 45 % 71 % 100 % 1020,1 hPa 0,0 l/m 6,8 km/h (2 Bft) 2 min 0 min 10,4 km/h (2 Bft)
01.04.2012 11:32 15,2 C 7,5 C 4,2 UV-I 8,6 C 45 % 71 % 100 % 1020,1 hPa 0,0 l/m 6,8 km/h (2 Bft) 2 min 0 min 5,6 km/h (1 Bft)
01.04.2012 11:34 15,1 C 7,5 C 4,2 UV-I 8,7 C 45 % 71 % 100 % 1020,1 hPa 0,0 l/m 6,0 km/h (2 Bft) 2 min 0 min 8,4 km/h (2 Bft)
01.04.2012 11:36 15,1 C 7,5 C 4,2 UV-I 9,1 C 45 % 70 % 100 % 1020,1 hPa 0,0 l/m 4,8 km/h (1 Bft) 2 min 0 min 8,4 km/h (2 Bft)
01.04.2012 11:38 15,1 C 7,6 C 4,4 UV-I 9,3 C 45 % 70 % 100 % 1020,1 hPa 0,0 l/m 4,4 km/h (1 Bft) 2 min 0 min 11,2 km/h (2 Bft)
01.04.2012 11:40 15,1 C 7,7 C 4,4 UV-I 9,2 C 45 % 71 % 100 % 1020,1 hPa 0,0 l/m 4,8 km/h (1 Bft) 2 min 0 min 12,0 km/h (2 Bft)
01.04.2012 11:42 15,3 C 7,7 C 2,3 UV-I 8,4 C 45 % 70 % 100 % 1020,1 hPa 0,0 l/m 5,2 km/h (1 Bft) 2 min 0 min 12,0 km/h (2 Bft)
01.04.2012 11:44 15,3 C 7,7 C 2,3 UV-I 7,5 C 45 % 69 % 100 % 1020,1 hPa 0,0 l/m 5,2 km/h (1 Bft) 2 min 0 min 11,2 km/h (2 Bft)
01.04.2012 11:46 15,2 C 7,7 C 2,3 UV-I 7,3 C 45 % 69 % 100 % 1020,1 hPa 0,0 l/m 5,6 km/h (1 Bft) 2 min 0 min 8,0 km/h (2 Bft)
01.04.2012 11:48 15,2 C 7,7 C 4,7 UV-I 7,6 C 45 % 69 % 100 % 1020,1 hPa 0,0 l/m 6,4 km/h (2 Bft) 2 min 0 min 8,0 km/h (2 Bft)
01.04.2012 11:50 15,2 C 7,8 C 4,7 UV-I 7,9 C 45 % 68 % 100 % 1020,1 hPa 0,0 l/m 6,4 km/h (2 Bft) 2 min 0 min 9,2 km/h (2 Bft)
01.04.2012 11:52 15,2 C 7,9 C 4,5 UV-I 8,1 C 45 % 67 % 100 % 1020,1 hPa 0,0 l/m 5,6 km/h (1 Bft) 2 min 0 min 9,2 km/h (2 Bft)
01.04.2012 11:54 15,2 C 7,8 C 4,5 UV-I 8,6 C 45 % 68 % 100 % 1020,1 hPa 0,0 l/m 5,2 km/h (1 Bft) 2 min 0 min 6,0 km/h (2 Bft)
01.04.2012 11:56 15,4 C 7,9 C 4,5 UV-I 8,8 C 45 % 66 % 100 % 1020,1 hPa 0,0 l/m 4,8 km/h (1 Bft) 2 min 0 min 6,0 km/h (2 Bft)
01.04.2012 11:58 15,4 C 7,9 C 4,5 UV-I 9,1 C 45 % 67 % 100 % 1020,1 hPa 0,0 l/m 5,2 km/h (1 Bft) 2 min 0 min 17,3 km/h (3 Bft)
01.04.2012 12:00 15,4 C 7,9 C 4,5 UV-I 9,1 C 45 % 67 % 100 % 1020,1 hPa 0,0 l/m 5,6 km/h (1 Bft) 2 min 0 min 17,3 km/h (3 Bft)
01.04.2012 12:02 15,4 C 7,9 C 4,5 UV-I 9,0 C 45 % 67 % 100 % 1020,1 hPa 0,0 l/m 5,6 km/h (1 Bft) 2 min 0 min 12,4 km/h (3 Bft)
01.04.2012 12:04 15,4 C 8,1 C 4,5 UV-I 7,9 C 45 % 66 % 100 % 1019,9 hPa 0,0 l/m 8,4 km/h (2 Bft) 2 min 0 min 21,3 km/h (4 Bft)
01.04.2012 12:06 15,4 C 8,0 C 4,5 UV-I 7,9 C 45 % 66 % 100 % 1019,9 hPa 0,0 l/m 8,4 km/h (2 Bft) 2 min 0 min 21,3 km/h (4 Bft)
01.04.2012 12:08 15,4 C 8,1 C 4,5 UV-I 8,1 C 45 % 66 % 100 % 1019,9 hPa 0,0 l/m 8,4 km/h (2 Bft) 2 min 0 min 22,5 km/h (4 Bft)
01.04.2012 12:10 15,4 C 8,3 C 4,5 UV-I 8,3 C 45 % 66 % 100 % 1019,9 hPa 0,0 l/m 8,4 km/h (2 Bft) 2 min 0 min 14,9 km/h (3 Bft)
01.04.2012 12:12 15,3 C 8,3 C 2,7 UV-I 8,2 C 45 % 65 % 100 % 1019,9 hPa 0,0 l/m 8,4 km/h (2 Bft) 2 min 0 min 14,9 km/h (3 Bft)
01.04.2012 12:14 15,3 C 8,3 C 2,7 UV-I 7,4 C 45 % 65 % 100 % 1019,9 hPa 0,0 l/m 7,6 km/h (2 Bft) 2 min 0 min 13,7 km/h (3 Bft)
01.04.2012 12:16 15,3 C 8,3 C 2,7 UV-I 6,5 C 45 % 65 % 100 % 1019,9 hPa 0,0 l/m 6,8 km/h (2 Bft) 2 min 0 min 8,4 km/h (2 Bft)
01.04.2012 12:18 15,3 C 8,3 C 3,0 UV-I 6,5 C 45 % 66 % 100 % 1019,9 hPa 0,0 l/m 7,2 km/h (2 Bft) 2 min 0 min 7,2 km/h (2 Bft)
01.04.2012 12:20 15,5 C 8,2 C 3,0 UV-I 6,9 C 45 % 66 % 100 % 1019,9 hPa 0,0 l/m 6,8 km/h (2 Bft) 2 min 0 min 12,8 km/h (3 Bft)
01.04.2012 12:22 15,5 C 8,3 C 2,3 UV-I 6,4 C 45 % 64 % 100 % 1019,9 hPa 0,0 l/m 7,2 km/h (2 Bft) 2 min 0 min 12,8 km/h (3 Bft)
01.04.2012 12:24 15,4 C 8,2 C 2,3 UV-I 6,2 C 45 % 64 % 100 % 1019,8 hPa 0,0 l/m 6,8 km/h (2 Bft) 2 min 0 min 10,0 km/h (2 Bft)
01.04.2012 12:26 15,4 C 8,1 C 2,3 UV-I 5,7 C 45 % 64 % 100 % 1019,8 hPa 0,0 l/m 7,2 km/h (2 Bft) 2 min 0 min 15,3 km/h (3 Bft)
01.04.2012 12:28 15,6 C 8,0 C 1,3 UV-I 5,3 C 45 % 63 % 100 % 1019,8 hPa 0,0 l/m 8,4 km/h (2 Bft) 2 min 0 min 16,9 km/h (3 Bft)
01.04.2012 12:30 15,6 C 8,0 C 1,3 UV-I 4,4 C 45 % 63 % 100 % 1019,8 hPa 0,0 l/m 9,2 km/h (2 Bft) 2 min 0 min 16,9 km/h (3 Bft)
01.04.2012 12:32 15,6 C 7,9 C 1,0 UV-I 3,7 C 44 % 63 % 100 % 1019,8 hPa 0,0 l/m 8,8 km/h (2 Bft) 2 min 0 min 12,0 km/h (2 Bft)
01.04.2012 12:34 15,6 C 7,9 C 1,0 UV-I 3,3 C 44 % 62 % 94 % 1019,8 hPa 0,0 l/m 8,4 km/h (2 Bft) 2 min 0 min 12,0 km/h (2 Bft)
01.04.2012 12:36 15,6 C 7,9 C 1,0 UV-I 3,8 C 44 % 63 % 100 % 1019,8 hPa 0,0 l/m 7,6 km/h (2 Bft) 2 min 0 min 9,6 km/h (2 Bft)
01.04.2012 12:38 15,6 C 8,1 C 1,4 UV-I 4,8 C 44 % 64 % 100 % 1019,8 hPa 0,0 l/m 6,8 km/h (2 Bft) 2 min 0 min 8,0 km/h (2 Bft)
01.04.2012 12:40 15,6 C 8,2 C 1,4 UV-I 5,7 C 44 % 64 % 100 % 1019,8 hPa 0,0 l/m 4,8 km/h (1 Bft) 2 min 0 min 8,0 km/h (2 Bft)
01.04.2012 12:42 15,6 C 8,3 C 3,8 UV-I 7,0 C 44 % 63 % 100 % 1019,8 hPa 0,0 l/m 3,6 km/h (1 Bft) 2 min 0 min 4,4 km/h (1 Bft)
01.04.2012 12:44 15,6 C 8,5 C 3,8 UV-I 7,4 C 44 % 64 % 100 % 1019,6 hPa 0,0 l/m 3,2 km/h (1 Bft) 2 min 0 min 10,8 km/h (2 Bft)
01.04.2012 12:46 15,6 C 8,5 C 3,8 UV-I 7,1 C 44 % 63 % 100 % 1019,6 hPa 0,0 l/m 3,2 km/h (1 Bft) 2 min 0 min 10,8 km/h (2 Bft)
01.04.2012 12:48 15,7 C 8,5 C 1,3 UV-I 6,4 C 44 % 63 % 100 % 1019,6 hPa 0,0 l/m 4,0 km/h (1 Bft) 2 min 0 min 5,2 km/h (1 Bft)
01.04.2012 12:50 15,6 C 8,6 C 1,3 UV-I 5,8 C 44 % 63 % 100 % 1019,6 hPa 0,0 l/m 4,8 km/h (1 Bft) 2 min 0 min 7,6 km/h (2 Bft)
01.04.2012 12:52 15,6 C 8,6 C 2,0 UV-I 5,4 C 45 % 62 % 100 % 1019,6 hPa 0,0 l/m 6,0 km/h (2 Bft) 2 min 0 min 11,2 km/h (2 Bft)
01.04.2012 12:54 15,8 C 8,7 C 2,0 UV-I 5,4 C 44 % 62 % 100 % 1019,6 hPa 0,0 l/m 7,6 km/h (2 Bft) 2 min 0 min 12,0 km/h (2 Bft)
01.04.2012 12:56 15,8 C 8,7 C 2,0 UV-I 5,4 C 45 % 62 % 100 % 1019,6 hPa 0,0 l/m 6,4 km/h (2 Bft) 2 min 0 min 12,0 km/h (2 Bft)
01.04.2012 12:58 15,8 C 8,7 C 1,5 UV-I 5,0 C 45 % 62 % 100 % 1019,6 hPa 0,0 l/m 6,8 km/h (2 Bft) 2 min 0 min 8,4 km/h (2 Bft)
01.04.2012 13:00 15,8 C 8,5 C 1,5 UV-I 4,7 C 45 % 62 % 100 % 1019,6 hPa 0,0 l/m 7,6 km/h (2 Bft) 2 min 0 min 14,1 km/h (3 Bft)
01.04.2012 13:02 15,8 C 8,5 C 1,5 UV-I 4,5 C 44 % 62 % 100 % 1019,6 hPa 0,0 l/m 7,6 km/h (2 Bft) 2 min 0 min 14,1 km/h (3 Bft)
01.04.2012 13:04 15,9 C 8,5 C 1,5 UV-I 4,4 C 44 % 62 % 100 % 1019,7 hPa 0,0 l/m 6,0 km/h (2 Bft) 2 min 0 min 0,0 km/h (0 Bft)
01.04.2012 13:06 15,9 C 8,5 C 1,5 UV-I 4,4 C 44 % 62 % 100 % 1019,7 hPa 0,0 l/m 5,2 km/h (1 Bft) 2 min 0 min 4,4 km/h (1 Bft)
01.04.2012 13:08 15,9 C 8,5 C 1,1 UV-I 4,4 C 44 % 62 % 100 % 1019,7 hPa 0,0 l/m 5,6 km/h (1 Bft) 2 min 0 min 16,1 km/h (3 Bft)
01.04.2012 13:10 15,9 C 8,6 C 1,1 UV-I 4,0 C 44 % 62 % 100 % 1019,7 hPa 0,0 l/m 5,6 km/h (1 Bft) 2 min 0 min 16,1 km/h (3 Bft)
01.04.2012 13:12 15,9 C 8,7 C 0,8 UV-I 3,7 C 44 % 62 % 100 % 1019,7 hPa 0,0 l/m 4,8 km/h (1 Bft) 2 min 0 min 10,0 km/h (2 Bft)
01.04.2012 13:14 15,9 C 8,5 C 0,8 UV-I 3,5 C 44 % 62 % 100 % 1019,7 hPa 0,0 l/m 6,0 km/h (2 Bft) 2 min 0 min 19,3 km/h (3 Bft)
01.04.2012 13:16 16,0 C 8,5 C 0,8 UV-I 3,1 C 44 % 62 % 89 % 1019,7 hPa 0,0 l/m 7,6 km/h (2 Bft) 2 min 0 min 19,3 km/h (3 Bft)
01.04.2012 13:18 16,0 C 8,4 C 0,9 UV-I 3,0 C 44 % 62 % 86 % 1019,7 hPa 0,0 l/m 8,0 km/h (2 Bft) 2 min 0 min 13,3 km/h (3 Bft)
01.04.2012 13:20 16,0 C 8,4 C 0,9 UV-I 2,9 C 44 % 62 % 83 % 1019,7 hPa 0,0 l/m 6,8 km/h (2 Bft) 2 min 0 min 9,6 km/h (2 Bft)
01.04.2012 13:22 16,0 C 8,5 C 1,1 UV-I 2,9 C 44 % 61 % 83 % 1019,7 hPa 0,0 l/m 7,2 km/h (2 Bft) 2 min 0 min 6,0 km/h (2 Bft)
01.04.2012 13:24 16,0 C 8,7 C 1,1 UV-I 2,9 C 44 % 62 % 83 % 1019,7 hPa 0,0 l/m 6,4 km/h (2 Bft) 2 min 0 min 6,0 km/h (2 Bft)
01.04.2012 13:26 16,0 C 8,7 C 1,1 UV-I 3,4 C 44 % 62 % 97 % 1019,6 hPa 0,0 l/m 4,8 km/h (1 Bft) 2 min 0 min 8,0 km/h (2 Bft)
01.04.2012 13:28 15,9 C 8,8 C 1,1 UV-I 3,6 C 44 % 62 % 100 % 1019,6 hPa 0,0 l/m 4,4 km/h (1 Bft) 2 min 0 min 8,0 km/h (2 Bft)
01.04.2012 13:30 15,9 C 8,8 C 1,1 UV-I 3,6 C 44 % 62 % 100 % 1019,6 hPa 0,0 l/m 4,8 km/h (1 Bft) 2 min 0 min 7,2 km/h (2 Bft)
01.04.2012 13:32 15,9 C 8,8 C 0,9 UV-I 3,5 C 44 % 61 % 100 % 1019,6 hPa 0,0 l/m 5,2 km/h (1 Bft) 2 min 0 min 13,7 km/h (3 Bft)
01.04.2012 13:34 15,9 C 8,8 C 0,9 UV-I 3,3 C 44 % 61 % 94 % 1019,6 hPa 0,0 l/m 5,2 km/h (1 Bft) 2 min 0 min 13,7 km/h (3 Bft)
01.04.2012 13:36 15,9 C 8,8 C 0,9 UV-I 3,1 C 44 % 61 % 89 % 1019,6 hPa 0,0 l/m 6,0 km/h (2 Bft) 2 min 0 min 15,3 km/h (3 Bft)
01.04.2012 13:38 15,9 C 8,8 C 1,6 UV-I 3,0 C 44 % 61 % 86 % 1019,6 hPa 0,0 l/m 6,4 km/h (2 Bft) 2 min 0 min 15,3 km/h (3 Bft)
01.04.2012 13:40 16,1 C 8,8 C 1,6 UV-I 3,6 C 44 % 61 % 100 % 1019,6 hPa 0,0 l/m 6,8 km/h (2 Bft) 2 min 0 min 10,0 km/h (2 Bft)
01.04.2012 13:42 16,1 C 9,1 C 2,8 UV-I 4,3 C 44 % 61 % 100 % 1019,6 hPa 0,0 l/m 6,8 km/h (2 Bft) 2 min 0 min 10,0 km/h (2 Bft)
01.04.2012 13:44 16,1 C 9,0 C 2,8 UV-I 4,8 C 44 % 61 % 100 % 1019,7 hPa 0,0 l/m 7,2 km/h (2 Bft) 2 min 0 min 11,2 km/h (2 Bft)
01.04.2012 13:46 16,1 C 9,1 C 2,8 UV-I 4,6 C 44 % 60 % 100 % 1019,7 hPa 0,0 l/m 6,4 km/h (2 Bft) 2 min 0 min 11,2 km/h (2 Bft)
01.04.2012 13:48 16,2 C 9,1 C 1,1 UV-I 4,3 C 44 % 61 % 100 % 1019,7 hPa 0,0 l/m 6,8 km/h (2 Bft) 2 min 0 min 20,5 km/h (4 Bft)
01.04.2012 13:50 16,2 C 8,9 C 1,1 UV-I 4,0 C 43 % 60 % 100 % 1019,7 hPa 0,0 l/m 8,0 km/h (2 Bft) 2 min 0 min 20,5 km/h (4 Bft)
01.04.2012 13:52 16,2 C 8,9 C 0,8 UV-I 3,7 C 43 % 60 % 100 % 1019,7 hPa 0,0 l/m 7,2 km/h (2 Bft) 2 min 0 min 10,0 km/h (2 Bft)
01.04.2012 13:54 16,2 C 8,9 C 0,8 UV-I 3,4 C 43 % 60 % 97 % 1019,7 hPa 0,0 l/m 7,6 km/h (2 Bft) 2 min 0 min 17,3 km/h (3 Bft)
01.04.2012 13:56 16,2 C 8,9 C 0,8 UV-I 3,2 C 43 % 60 % 91 % 1019,7 hPa 0,0 l/m 8,0 km/h (2 Bft) 2 min 0 min 17,3 km/h (3 Bft)
01.04.2012 13:58 16,2 C 9,0 C 0,9 UV-I 3,0 C 43 % 60 % 86 % 1019,7 hPa 0,0 l/m 9,6 km/h (2 Bft) 2 min 0 min 27,7 km/h (4 Bft)
01.04.2012 14:00 16,2 C 9,1 C 0,9 UV-I 2,8 C 43 % 60 % 80 % 1019,7 hPa 0,0 l/m 7,6 km/h (2 Bft) 0 min 0 min 14,9 km/h (3 Bft)
01.04.2012 14:02 16,2 C 9,0 C 0,7 UV-I 2,8 C 43 % 60 % 80 % 1019,7 hPa 0,0 l/m 7,6 km/h (2 Bft) 0 min 0 min 14,5 km/h (3 Bft)
01.04.2012 14:04 16,2 C 9,1 C 0,7 UV-I 2,5 C 43 % 59 % 71 % 1019,6 hPa 0,0 l/m 8,8 km/h (2 Bft) 0 min 0 min 17,3 km/h (3 Bft)
01.04.2012 14:06 16,2 C 8,9 C 0,7 UV-I 2,5 C 43 % 59 % 71 % 1019,6 hPa 0,0 l/m 7,6 km/h (2 Bft) 0 min 0 min 17,3 km/h (3 Bft)
01.04.2012 14:08 16,2 C 8,9 C 0,7 UV-I 2,4 C 43 % 59 % 69 % 1019,6 hPa 0,0 l/m 8,0 km/h (2 Bft) 0 min 0 min 14,9 km/h (3 Bft)
01.04.2012 14:10 16,2 C 8,8 C 0,7 UV-I 2,3 C 43 % 59 % 66 % 1019,6 hPa 0,0 l/m 8,0 km/h (2 Bft) 0 min 0 min 14,9 km/h (3 Bft)
01.04.2012 14:12 16,2 C 8,8 C 0,9 UV-I 2,2 C 43 % 59 % 63 % 1019,6 hPa 0,0 l/m 8,0 km/h (2 Bft) 0 min 0 min 4,4 km/h (1 Bft)
01.04.2012 14:14 16,2 C 8,9 C 0,9 UV-I 2,2 C 43 % 59 % 63 % 1019,6 hPa 0,0 l/m 8,0 km/h (2 Bft) 0 min 0 min 21,3 km/h (4 Bft)
01.04.2012 14:16 16,3 C 8,9 C 0,9 UV-I 2,2 C 43 % 59 % 63 % 1019,6 hPa 0,0 l/m 7,2 km/h (2 Bft) 0 min 0 min 21,3 km/h (4 Bft)
01.04.2012 14:18 16,2 C 8,9 C 0,6 UV-I 2,2 C 43 % 59 % 63 % 1019,6 hPa 0,0 l/m 8,0 km/h (2 Bft) 0 min 0 min 15,3 km/h (3 Bft)
01.04.2012 14:20 16,3 C 8,9 C 0,6 UV-I 2,1 C 43 % 59 % 60 % 1019,6 hPa 0,0 l/m 6,8 km/h (2 Bft) 0 min 0 min 10,0 km/h (2 Bft)
01.04.2012 14:22 16,3 C 9,0 C 0,7 UV-I 2,0 C 43 % 60 % 57 % 1019,6 hPa 0,0 l/m 6,4 km/h (2 Bft) 0 min 0 min 7,2 km/h (2 Bft)
01.04.2012 14:24 16,3 C 9,0 C 0,7 UV-I 2,1 C 43 % 60 % 60 % 1019,6 hPa 0,0 l/m 6,8 km/h (2 Bft) 0 min 0 min 6,4 km/h (2 Bft)
01.04.2012 14:26 16,3 C 9,1 C 0,7 UV-I 2,2 C 43 % 60 % 63 % 1019,1 hPa 0,0 l/m 6,4 km/h (2 Bft) 0 min 0 min 20,5 km/h (4 Bft)
01.04.2012 14:28 16,2 C 9,2 C 2,0 UV-I 2,7 C 43 % 59 % 77 % 1019,1 hPa 0,0 l/m 6,4 km/h (2 Bft) 0 min 0 min 20,5 km/h (4 Bft)
01.04.2012 14:30 16,4 C 9,2 C 2,0 UV-I 3,3 C 43 % 58 % 94 % 1019,1 hPa 0,0 l/m 7,2 km/h (2 Bft) 2 min 0 min 18,9 km/h (3 Bft)
01.04.2012 14:32 16,4 C 9,4 C 3,3 UV-I 4,1 C 43 % 58 % 100 % 1019,1 hPa 0,0 l/m 8,0 km/h (2 Bft) 2 min 0 min 18,9 km/h (3 Bft)
01.04.2012 14:34 16,4 C 9,6 C 3,3 UV-I 4,9 C 42 % 58 % 100 % 1019,1 hPa 0,0 l/m 8,8 km/h (2 Bft) 2 min 0 min 16,5 km/h (3 Bft)
01.04.2012 14:36 16,5 C 9,7 C 3,3 UV-I 5,4 C 42 % 58 % 100 % 1019,1 hPa 0,0 l/m 10,0 km/h (2 Bft) 2 min 0 min 14,5 km/h (3 Bft)
01.04.2012 14:38 16,6 C 9,9 C 3,8 UV-I 5,8 C 42 % 57 % 100 % 1019,1 hPa 0,0 l/m 10,0 km/h (2 Bft) 2 min 0 min 19,3 km/h (3 Bft)
01.04.2012 14:40 16,6 C 10,1 C 3,8 UV-I 5,9 C 42 % 58 % 100 % 1019,1 hPa 0,0 l/m 10,0 km/h (2 Bft) 2 min 0 min 19,3 km/h (3 Bft)
01.04.2012 14:42 16,7 C 10,1 C 3,5 UV-I 6,1 C 42 % 57 % 100 % 1019,1 hPa 0,0 l/m 10,0 km/h (2 Bft) 2 min 0 min 13,3 km/h (3 Bft)
01.04.2012 14:44 16,8 C 10,3 C 3,5 UV-I 6,1 C 42 % 57 % 100 % 1019,1 hPa 0,0 l/m 9,6 km/h (2 Bft) 2 min 0 min 13,3 km/h (3 Bft)
01.04.2012 14:46 16,8 C 10,3 C 3,5 UV-I 6,1 C 41 % 55 % 100 % 1019,1 hPa 0,0 l/m 10,8 km/h (2 Bft) 2 min 0 min 12,8 km/h (3 Bft)
01.04.2012 14:48 16,9 C 10,3 C 3,3 UV-I 5,9 C 41 % 57 % 100 % 1019,1 hPa 0,0 l/m 10,0 km/h (2 Bft) 2 min 0 min 12,0 km/h (2 Bft)
01.04.2012 14:50 17,0 C 10,3 C 3,3 UV-I 5,9 C 41 % 57 % 100 % 1019,1 hPa 0,0 l/m 10,8 km/h (2 Bft) 2 min 0 min 14,9 km/h (3 Bft)
01.04.2012 14:52 17,0 C 10,3 C 3,3 UV-I 6,1 C 41 % 57 % 100 % 1019,1 hPa 0,0 l/m 10,4 km/h (2 Bft) 2 min 0 min 14,9 km/h (3 Bft)
01.04.2012 14:54 17,1 C 10,4 C 3,3 UV-I 6,4 C 41 % 56 % 100 % 1019,1 hPa 0,0 l/m 10,0 km/h (2 Bft) 2 min 0 min 15,7 km/h (3 Bft)
01.04.2012 14:56 17,2 C 10,5 C 3,3 UV-I 6,7 C 40 % 55 % 100 % 1019,1 hPa 0,0 l/m 9,2 km/h (2 Bft) 2 min 0 min 15,7 km/h (3 Bft)
01.04.2012 14:58 17,2 C 10,6 C 4,1 UV-I 6,9 C 40 % 56 % 100 % 1019,1 hPa 0,0 l/m 8,4 km/h (2 Bft) 2 min 0 min 15,3 km/h (3 Bft)
01.04.2012 15:00 17,4 C 10,7 C 4,1 UV-I 7,4 C 40 % 56 % 100 % 1019,1 hPa 0,0 l/m 7,6 km/h (2 Bft) 2 min 0 min 9,2 km/h (2 Bft)
01.04.2012 15:02 17,5 C 10,8 C 3,3 UV-I 7,5 C 40 % 55 % 100 % 1019,1 hPa 0,0 l/m 8,4 km/h (2 Bft) 2 min 0 min 35,3 km/h (5 Bft)
01.04.2012 15:04 17,6 C 10,9 C 3,3 UV-I 7,2 C 40 % 55 % 100 % 1019,5 hPa 0,0 l/m 8,4 km/h (2 Bft) 2 min 0 min 6,0 km/h (2 Bft)
01.04.2012 15:06 17,6 C 10,9 C 3,3 UV-I 7,1 C 40 % 55 % 100 % 1019,5 hPa 0,0 l/m 8,0 km/h (2 Bft) 2 min 0 min 12,8 km/h (3 Bft)
01.04.2012 15:08 17,8 C 11,1 C 3,7 UV-I 7,0 C 39 % 54 % 100 % 1019,5 hPa 0,0 l/m 8,4 km/h (2 Bft) 2 min 0 min 35,3 km/h (5 Bft)
01.04.2012 15:10 17,8 C 11,1 C 3,7 UV-I 7,0 C 39 % 54 % 100 % 1019,5 hPa 0,0 l/m 9,2 km/h (2 Bft) 2 min 0 min 18,9 km/h (3 Bft)
01.04.2012 15:12 17,9 C 11,1 C 1,7 UV-I 6,3 C 39 % 54 % 100 % 1019,5 hPa 0,0 l/m 8,4 km/h (2 Bft) 2 min 0 min 10,4 km/h (2 Bft)
01.04.2012 15:14 18,0 C 10,8 C 1,7 UV-I 6,0 C 39 % 54 % 100 % 1019,5 hPa 0,0 l/m 8,0 km/h (2 Bft) 2 min 0 min 8,8 km/h (2 Bft)
01.04.2012 15:16 18,0 C 10,9 C 1,7 UV-I 5,4 C 39 % 54 % 100 % 1019,5 hPa 0,0 l/m 9,2 km/h (2 Bft) 2 min 0 min 19,3 km/h (3 Bft)
01.04.2012 15:18 18,1 C 10,8 C 2,9 UV-I 5,4 C 38 % 55 % 100 % 1019,5 hPa 0,0 l/m 8,8 km/h (2 Bft) 2 min 0 min 19,3 km/h (3 Bft)
01.04.2012 15:20 18,1 C 10,9 C 2,9 UV-I 5,1 C 38 % 55 % 100 % 1019,5 hPa 0,0 l/m 8,0 km/h (2 Bft) 2 min 0 min 13,3 km/h (3 Bft)
01.04.2012 15:22 18,2 C 10,9 C 1,2 UV-I 4,5 C 38 % 55 % 100 % 1019,5 hPa 0,0 l/m 8,4 km/h (2 Bft) 2 min 0 min 12,4 km/h (3 Bft)
01.04.2012 15:24 18,2 C 10,7 C 1,2 UV-I 4,2 C 38 % 54 % 100 % 1019,9 hPa 0,0 l/m 8,0 km/h (2 Bft) 2 min 0 min 12,4 km/h (3 Bft)
01.04.2012 15:26 18,2 C 10,6 C 1,2 UV-I 3,8 C 38 % 55 % 100 % 1019,9 hPa 0,0 l/m 7,2 km/h (2 Bft) 2 min 0 min 9,2 km/h (2 Bft)
01.04.2012 15:28 18,2 C 10,6 C 2,6 UV-I 3,9 C 38 % 55 % 100 % 1019,9 hPa 0,0 l/m 8,0 km/h (2 Bft) 2 min 0 min 8,0 km/h (2 Bft)
01.04.2012 15:30 18,3 C 10,8 C 2,6 UV-I 4,2 C 38 % 55 % 100 % 1019,9 hPa 0,0 l/m 7,6 km/h (2 Bft) 2 min 0 min 8,0 km/h (2 Bft)
01.04.2012 15:32 18,4 C 10,9 C 3,5 UV-I 4,9 C 38 % 55 % 100 % 1019,9 hPa 0,0 l/m 7,6 km/h (2 Bft) 2 min 0 min 20,9 km/h (4 Bft)
01.04.2012 15:34 18,4 C 11,1 C 3,5 UV-I 5,1 C 38 % 54 % 100 % 1019,9 hPa 0,0 l/m 9,2 km/h (2 Bft) 2 min 0 min 20,9 km/h (4 Bft)
01.04.2012 15:36 18,5 C 11,0 C 3,5 UV-I 5,1 C 38 % 53 % 100 % 1019,9 hPa 0,0 l/m 9,6 km/h (2 Bft) 2 min 0 min 32,1 km/h (5 Bft)
01.04.2012 15:38 18,6 C 11,1 C 2,4 UV-I 4,7 C 38 % 53 % 100 % 1019,9 hPa 0,0 l/m 9,2 km/h (2 Bft) 2 min 0 min 32,1 km/h (5 Bft)
01.04.2012 15:40 18,6 C 11,1 C 2,4 UV-I 5,1 C 38 % 53 % 100 % 1019,9 hPa 0,0 l/m 10,0 km/h (2 Bft) 2 min 0 min 21,7 km/h (4 Bft)
01.04.2012 15:42 18,7 C 11,1 C 4,0 UV-I 5,3 C 37 % 53 % 100 % 1019,9 hPa 0,0 l/m 10,4 km/h (2 Bft) 2 min 0 min 21,7 km/h (4 Bft)
01.04.2012 15:44 18,8 C 11,3 C 4,0 UV-I 5,5 C 37 % 54 % 100 % 1020,4 hPa 0,0 l/m 9,6 km/h (2 Bft) 2 min 0 min 19,3 km/h (3 Bft)
01.04.2012 15:46 18,9 C 11,3 C 4,0 UV-I 5,8 C 37 % 54 % 100 % 1020,4 hPa 0,0 l/m 9,6 km/h (2 Bft) 2 min 0 min 19,3 km/h (3 Bft)
01.04.2012 15:48 19,0 C 11,4 C 4,1 UV-I 5,9 C 37 % 53 % 100 % 1020,4 hPa 0,0 l/m 9,6 km/h (2 Bft) 2 min 0 min 10,8 km/h (2 Bft)
01.04.2012 15:50 19,1 C 11,3 C 4,1 UV-I 6,0 C 37 % 53 % 100 % 1020,4 hPa 0,0 l/m 9,6 km/h (2 Bft) 2 min 0 min 10,8 km/h (2 Bft)
01.04.2012 15:52 19,1 C 11,3 C 4,0 UV-I 6,1 C 37 % 53 % 100 % 1020,4 hPa 0,0 l/m 10,8 km/h (2 Bft) 2 min 0 min 10,8 km/h (2 Bft)
01.04.2012 15:54 19,2 C 11,5 C 4,0 UV-I 6,0 C 37 % 54 % 100 % 1020,4 hPa 0,0 l/m 9,6 km/h (2 Bft) 2 min 0 min 9,6 km/h (2 Bft)
01.04.2012 15:56 19,2 C 11,4 C 4,0 UV-I 6,3 C 37 % 53 % 100 % 1020,4 hPa 0,0 l/m 8,8 km/h (2 Bft) 2 min 0 min 9,6 km/h (2 Bft)
01.04.2012 15:58 19,2 C 11,5 C 3,8 UV-I 6,3 C 36 % 52 % 100 % 1020,4 hPa 0,0 l/m 8,8 km/h (2 Bft) 2 min 0 min 15,7 km/h (3 Bft)
01.04.2012 16:00 19,4 C 11,5 C 3,8 UV-I 6,2 C 36 % 52 % 100 % 1020,4 hPa 0,0 l/m 8,8 km/h (2 Bft) 2 min 0 min 15,7 km/h (3 Bft)
01.04.2012 16:02 19,5 C 11,4 C 3,4 UV-I 6,4 C 36 % 52 % 100 % 1020,4 hPa 0,0 l/m 8,4 km/h (2 Bft) 2 min 0 min 17,3 km/h (3 Bft)
01.04.2012 16:04 19,6 C 11,2 C 3,4 UV-I 6,3 C 36 % 52 % 100 % 1020,9 hPa 0,0 l/m 9,6 km/h (2 Bft) 2 min 0 min 13,3 km/h (3 Bft)
01.04.2012 16:06 19,6 C 11,0 C 3,4 UV-I 5,5 C 36 % 52 % 100 % 1020,9 hPa 0,0 l/m 10,4 km/h (2 Bft) 2 min 0 min 13,3 km/h (3 Bft)
01.04.2012 16:08 19,6 C 10,9 C 1,2 UV-I 4,9 C 36 % 52 % 100 % 1020,9 hPa 0,0 l/m 10,8 km/h (2 Bft) 2 min 0 min 10,0 km/h (2 Bft)
01.04.2012 16:10 19,6 C 10,8 C 1,2 UV-I 4,2 C 36 % 53 % 100 % 1020,9 hPa 0,0 l/m 9,2 km/h (2 Bft) 2 min 0 min 8,8 km/h (2 Bft)
01.04.2012 16:12 19,6 C 10,8 C 0,8 UV-I 3,5 C 36 % 53 % 100 % 1020,9 hPa 0,0 l/m 9,6 km/h (2 Bft) 2 min 0 min 10,8 km/h (2 Bft)
01.04.2012 16:14 19,6 C 10,6 C 0,8 UV-I 3,2 C 36 % 53 % 91 % 1020,9 hPa 0,0 l/m 9,6 km/h (2 Bft) 2 min 0 min 12,4 km/h (3 Bft)
01.04.2012 16:16 19,5 C 10,6 C 0,8 UV-I 2,7 C 36 % 54 % 77 % 1020,9 hPa 0,0 l/m 7,6 km/h (2 Bft) 0 min 0 min 12,4 km/h (3 Bft)
01.04.2012 16:18 19,5 C 10,7 C 1,3 UV-I 2,5 C 36 % 55 % 71 % 1020,9 hPa 0,0 l/m 6,4 km/h (2 Bft) 0 min 0 min 9,2 km/h (2 Bft)
01.04.2012 16:20 19,5 C 10,7 C 1,3 UV-I 2,7 C 36 % 55 % 77 % 1020,9 hPa 0,0 l/m 6,4 km/h (2 Bft) 0 min 0 min 9,2 km/h (2 Bft)
01.04.2012 16:22 19,5 C 10,9 C 1,9 UV-I 2,8 C 36 % 54 % 80 % 1020,9 hPa 0,0 l/m 6,4 km/h (2 Bft) 0 min 0 min 6,4 km/h (2 Bft)
01.04.2012 16:24 19,5 C 10,8 C 1,9 UV-I 3,1 C 36 % 54 % 89 % 1019,5 hPa 0,0 l/m 5,6 km/h (1 Bft) 2 min 0 min 10,8 km/h (2 Bft)
01.04.2012 16:26 19,4 C 10,7 C 1,9 UV-I 3,2 C 36 % 54 % 91 % 1019,5 hPa 0,0 l/m 6,0 km/h (2 Bft) 2 min 0 min 10,8 km/h (2 Bft)
01.04.2012 16:28 19,4 C 10,7 C 1,1 UV-I 3,0 C 36 % 54 % 86 % 1019,5 hPa 0,0 l/m 7,2 km/h (2 Bft) 2 min 0 min 9,6 km/h (2 Bft)
01.04.2012 16:30 19,5 C 10,7 C 1,1 UV-I 3,0 C 36 % 54 % 86 % 1019,5 hPa 0,0 l/m 7,2 km/h (2 Bft) 2 min 0 min 9,2 km/h (2 Bft)
01.04.2012 16:32 19,4 C 10,8 C 1,4 UV-I 2,9 C 37 % 54 % 83 % 1019,5 hPa 0,0 l/m 7,6 km/h (2 Bft) 2 min 0 min 21,3 km/h (4 Bft)
01.04.2012 16:34 19,4 C 10,8 C 1,4 UV-I 2,8 C 36 % 53 % 80 % 1019,5 hPa 0,0 l/m 8,4 km/h (2 Bft) 0 min 0 min 21,3 km/h (4 Bft)
01.04.2012 16:36 19,4 C 10,7 C 1,4 UV-I 2,8 C 36 % 54 % 80 % 1019,5 hPa 0,0 l/m 8,4 km/h (2 Bft) 0 min 0 min 17,7 km/h (3 Bft)
01.04.2012 16:38 19,4 C 10,7 C 1,5 UV-I 2,8 C 36 % 54 % 80 % 1019,5 hPa 0,0 l/m 8,4 km/h (2 Bft) 0 min 0 min 12,4 km/h (3 Bft)
01.04.2012 16:40 19,4 C 10,8 C 1,5 UV-I 3,0 C 37 % 54 % 86 % 1019,5 hPa 0,0 l/m 7,6 km/h (2 Bft) 2 min 0 min 9,2 km/h (2 Bft)
01.04.2012 16:42 19,4 C 10,9 C 1,6 UV-I 3,2 C 36 % 54 % 91 % 1019,5 hPa 0,0 l/m 7,2 km/h (2 Bft) 2 min 0 min 0,0 km/h (0 Bft)
01.04.2012 16:44 19,4 C 10,9 C 1,6 UV-I 3,5 C 37 % 54 % 100 % 1018,6 hPa 0,0 l/m 6,8 km/h (2 Bft) 2 min 0 min 31,7 km/h (5 Bft)
01.04.2012 16:46 19,4 C 11,1 C 1,6 UV-I 3,6 C 37 % 54 % 100 % 1018,6 hPa 0,0 l/m 6,0 km/h (2 Bft) 2 min 0 min 31,7 km/h (5 Bft)
01.04.2012 16:48 19,4 C 11,2 C 2,3 UV-I 3,9 C 37 % 54 % 100 % 1018,6 hPa 0,0 l/m 6,0 km/h (2 Bft) 2 min 0 min 11,2 km/h (2 Bft)
01.04.2012 16:50 19,4 C 11,2 C 2,3 UV-I 4,2 C 36 % 53 % 100 % 1018,6 hPa 0,0 l/m 7,2 km/h (2 Bft) 2 min 0 min 11,2 km/h (2 Bft)
01.04.2012 16:52 19,4 C 11,2 C 1,3 UV-I 4,1 C 36 % 53 % 100 % 1018,6 hPa 0,0 l/m 7,6 km/h (2 Bft) 2 min 0 min 10,4 km/h (2 Bft)
01.04.2012 16:54 19,5 C 11,2 C 1,3 UV-I 4,0 C 36 % 53 % 100 % 1018,6 hPa 0,0 l/m 8,4 km/h (2 Bft) 2 min 0 min 13,7 km/h (3 Bft)
01.04.2012 16:56 19,5 C 11,3 C 1,3 UV-I 4,0 C 36 % 53 % 100 % 1018,6 hPa 0,0 l/m 7,6 km/h (2 Bft) 2 min 0 min 17,3 km/h (3 Bft)
01.04.2012 16:58 19,5 C 11,2 C 2,5 UV-I 4,3 C 36 % 53 % 100 % 1018,6 hPa 0,0 l/m 8,0 km/h (2 Bft) 2 min 0 min 17,3 km/h (3 Bft)
01.04.2012 17:00 19,5 C 11,3 C 2,5 UV-I 4,4 C 36 % 53 % 100 % 1018,6 hPa 0,0 l/m 7,2 km/h (2 Bft) 2 min 0 min 15,7 km/h (3 Bft)
01.04.2012 17:02 19,5 C 11,5 C 1,8 UV-I 4,3 C 36 % 53 % 100 % 1018,6 hPa 0,0 l/m 8,4 km/h (2 Bft) 2 min 0 min 16,9 km/h (3 Bft)
01.04.2012 17:04 19,5 C 11,5 C 1,8 UV-I 4,2 C 36 % 53 % 100 % 1018,8 hPa 0,0 l/m 9,2 km/h (2 Bft) 2 min 0 min 17,7 km/h (3 Bft)
01.04.2012 17:06 19,6 C 11,3 C 1,8 UV-I 4,5 C 36 % 53 % 100 % 1018,8 hPa 0,0 l/m 9,6 km/h (2 Bft) 2 min 0 min 17,7 km/h (3 Bft)
01.04.2012 17:08 19,6 C 11,3 C 1,8 UV-I 4,6 C 36 % 53 % 100 % 1018,8 hPa 0,0 l/m 8,8 km/h (2 Bft) 2 min 0 min 19,3 km/h (3 Bft)
01.04.2012 17:10 19,6 C 11,3 C 1,8 UV-I 4,5 C 36 % 53 % 100 % 1018,8 hPa 0,0 l/m 8,4 km/h (2 Bft) 2 min 0 min 19,3 km/h (3 Bft)
01.04.2012 17:12 19,6 C 11,3 C 1,1 UV-I 4,2 C 36 % 53 % 100 % 1018,8 hPa 0,0 l/m 7,2 km/h (2 Bft) 2 min 0 min 8,0 km/h (2 Bft)
01.04.2012 17:14 19,6 C 11,3 C 1,1 UV-I 4,0 C 36 % 53 % 100 % 1018,8 hPa 0,0 l/m 7,2 km/h (2 Bft) 2 min 0 min 17,3 km/h (3 Bft)
01.04.2012 17:16 19,6 C 11,2 C 1,1 UV-I 3,9 C 36 % 53 % 100 % 1018,8 hPa 0,0 l/m 6,0 km/h (2 Bft) 2 min 0 min 17,3 km/h (3 Bft)
01.04.2012 17:18 19,6 C 11,2 C 0,8 UV-I 3,7 C 36 % 54 % 100 % 1018,8 hPa 0,0 l/m 6,4 km/h (2 Bft) 2 min 0 min 23,7 km/h (4 Bft)
01.04.2012 17:20 19,6 C 11,3 C 0,8 UV-I 3,4 C 37 % 53 % 97 % 1018,8 hPa 0,0 l/m 6,8 km/h (2 Bft) 2 min 0 min 23,7 km/h (4 Bft)
01.04.2012 17:22 19,6 C 11,3 C 1,4 UV-I 3,3 C 37 % 53 % 94 % 1018,8 hPa 0,0 l/m 8,0 km/h (2 Bft) 2 min 0 min 12,0 km/h (2 Bft)
01.04.2012 17:24 19,6 C 11,4 C 1,4 UV-I 3,5 C 37 % 53 % 100 % 1019,0 hPa 0,0 l/m 8,4 km/h (2 Bft) 2 min 0 min 12,0 km/h (2 Bft)
01.04.2012 17:26 19,6 C 11,3 C 1,4 UV-I 3,7 C 37 % 53 % 100 % 1019,0 hPa 0,0 l/m 8,8 km/h (2 Bft) 2 min 0 min 14,1 km/h (3 Bft)
01.04.2012 17:28 19,6 C 11,3 C 0,7 UV-I 3,2 C 36 % 53 % 91 % 1019,0 hPa 0,0 l/m 10,8 km/h (2 Bft) 2 min 0 min 19,3 km/h (3 Bft)
01.04.2012 17:30 19,6 C 11,1 C 0,7 UV-I 3,0 C 36 % 53 % 86 % 1019,0 hPa 0,0 l/m 10,4 km/h (2 Bft) 2 min 0 min 19,3 km/h (3 Bft)
01.04.2012 17:32 19,6 C 11,2 C 0,9 UV-I 2,9 C 36 % 53 % 83 % 1019,0 hPa 0,0 l/m 10,4 km/h (2 Bft) 2 min 0 min 13,7 km/h (3 Bft)
01.04.2012 17:34 19,6 C 11,2 C 0,9 UV-I 3,3 C 36 % 54 % 94 % 1019,0 hPa 0,0 l/m 9,6 km/h (2 Bft) 2 min 0 min 8,8 km/h (2 Bft)
01.04.2012 17:36 19,5 C 11,2 C 0,9 UV-I 3,6 C 37 % 54 % 100 % 1019,0 hPa 0,0 l/m 8,8 km/h (2 Bft) 2 min 0 min 15,3 km/h (3 Bft)
01.04.2012 17:38 19,5 C 11,2 C 0,3 UV-I 3,6 C 37 % 53 % 100 % 1019,0 hPa 0,0 l/m 8,4 km/h (2 Bft) 2 min 0 min 15,3 km/h (3 Bft)
01.04.2012 17:40 19,5 C 11,1 C 0,3 UV-I 3,2 C 37 % 53 % 91 % 1019,0 hPa 0,0 l/m 7,6 km/h (2 Bft) 2 min 0 min 8,8 km/h (2 Bft)
01.04.2012 17:42 19,4 C 11,0 C 0,3 UV-I 3,0 C 37 % 53 % 86 % 1019,0 hPa 0,0 l/m 7,2 km/h (2 Bft) 2 min 0 min 20,1 km/h (4 Bft)
01.04.2012 17:44 19,4 C 11,0 C 0,3 UV-I 2,7 C 37 % 54 % 77 % 1017,8 hPa 0,0 l/m 8,0 km/h (2 Bft) 0 min 0 min 21,3 km/h (4 Bft)
01.04.2012 17:46 19,4 C 11,1 C 0,3 UV-I 2,7 C 37 % 54 % 77 % 1017,8 hPa 0,0 l/m 9,2 km/h (2 Bft) 0 min 0 min 21,3 km/h (4 Bft)
01.04.2012 17:48 19,4 C 11,0 C 0,8 UV-I 3,0 C 36 % 54 % 86 % 1017,8 hPa 0,0 l/m 8,8 km/h (2 Bft) 2 min 0 min 16,5 km/h (3 Bft)
01.04.2012 17:50 19,4 C 11,0 C 0,8 UV-I 3,1 C 36 % 53 % 89 % 1017,8 hPa 0,0 l/m 8,8 km/h (2 Bft) 2 min 0 min 16,5 km/h (3 Bft)
01.04.2012 17:52 19,4 C 11,1 C 0,7 UV-I 3,3 C 36 % 54 % 94 % 1017,8 hPa 0,0 l/m 9,6 km/h (2 Bft) 2 min 0 min 16,9 km/h (3 Bft)
01.04.2012 17:54 19,4 C 11,1 C 0,7 UV-I 3,3 C 36 % 54 % 94 % 1017,8 hPa 0,0 l/m 9,6 km/h (2 Bft) 2 min 0 min 23,3 km/h (4 Bft)
01.04.2012 17:56 19,4 C 11,1 C 0,7 UV-I 3,1 C 36 % 53 % 89 % 1017,8 hPa 0,0 l/m 10,8 km/h (2 Bft) 2 min 0 min 23,3 km/h (4 Bft)
01.04.2012 17:58 19,4 C 11,0 C 0,6 UV-I 3,1 C 36 % 54 % 89 % 1017,8 hPa 0,0 l/m 10,4 km/h (2 Bft) 2 min 0 min 16,1 km/h (3 Bft)
01.04.2012 18:00 19,4 C 10,9 C 0,6 UV-I 2,8 C 36 % 54 % 80 % 1017,8 hPa 0,0 l/m 9,6 km/h (2 Bft) 0 min 0 min 12,0 km/h (2 Bft)
01.04.2012 18:02 19,2 C 10,8 C 0,4 UV-I 2,4 C 36 % 54 % 69 % 1017,8 hPa 0,0 l/m 9,2 km/h (2 Bft) 0 min 0 min 12,0 km/h (2 Bft)
01.04.2012 18:04 19,3 C 10,8 C 0,4 UV-I 2,0 C 36 % 54 % 57 % 1017,8 hPa 0,0 l/m 8,4 km/h (2 Bft) 0 min 0 min 12,0 km/h (2 Bft)
01.04.2012 18:06 19,2 C 10,8 C 0,4 UV-I 1,6 C 36 % 55 % 46 % 1017,8 hPa 0,0 l/m 6,8 km/h (2 Bft) 0 min 0 min 12,0 km/h (2 Bft)
01.04.2012 18:08 19,2 C 10,8 C 0,4 UV-I 1,5 C 36 % 55 % 43 % 1017,8 hPa 0,0 l/m 6,4 km/h (2 Bft) 0 min 0 min 8,4 km/h (2 Bft)
01.04.2012 18:10 19,2 C 10,8 C 0,4 UV-I 1,6 C 36 % 55 % 46 % 1017,8 hPa 0,0 l/m 6,8 km/h (2 Bft) 0 min 0 min 10,0 km/h (2 Bft)
01.04.2012 18:12 19,2 C 10,7 C 0,3 UV-I 1,7 C 36 % 55 % 49 % 1017,8 hPa 0,0 l/m 7,6 km/h (2 Bft) 0 min 0 min 18,9 km/h (3 Bft)
01.04.2012 18:14 19,1 C 10,7 C 0,3 UV-I 1,5 C 36 % 55 % 43 % 1017,8 hPa 0,0 l/m 8,4 km/h (2 Bft) 0 min 0 min 18,9 km/h (3 Bft)
01.04.2012 18:16 19,1 C 10,7 C 0,3 UV-I 1,5 C 36 % 55 % 43 % 1017,8 hPa 0,0 l/m 8,4 km/h (2 Bft) 0 min 0 min 10,8 km/h (2 Bft)
01.04.2012 18:18 19,1 C 10,7 C 0,3 UV-I 1,4 C 37 % 55 % 40 % 1017,8 hPa 0,0 l/m 8,0 km/h (2 Bft) 0 min 0 min 10,8 km/h (2 Bft)
01.04.2012 18:20 19,0 C 10,7 C 0,3 UV-I 1,2 C 37 % 55 % 34 % 1017,8 hPa 0,0 l/m 8,4 km/h (2 Bft) 0 min 0 min 12,4 km/h (3 Bft)
01.04.2012 18:22 19,0 C 10,6 C 0,3 UV-I 1,3 C 37 % 56 % 37 % 1017,8 hPa 0,0 l/m 8,4 km/h (2 Bft) 0 min 0 min 15,3 km/h (3 Bft)
01.04.2012 18:24 18,9 C 10,7 C 0,3 UV-I 1,2 C 37 % 56 % 34 % 1017,8 hPa 0,0 l/m 8,0 km/h (2 Bft) 0 min 0 min 15,3 km/h (3 Bft)
01.04.2012 18:26 18,9 C 10,6 C 0,3 UV-I 1,3 C 37 % 56 % 37 % 1016,4 hPa 0,0 l/m 7,6 km/h (2 Bft) 0 min 0 min 12,8 km/h (3 Bft)
01.04.2012 18:28 18,9 C 10,7 C 0,2 UV-I 1,1 C 37 % 56 % 31 % 1016,4 hPa 0,0 l/m 7,6 km/h (2 Bft) 0 min 0 min 12,0 km/h (2 Bft)
01.04.2012 18:30 18,8 C 10,6 C 0,2 UV-I 1,2 C 37 % 56 % 34 % 1016,4 hPa 0,0 l/m 7,6 km/h (2 Bft) 0 min 0 min 12,0 km/h (2 Bft)
01.04.2012 18:32 18,8 C 10,7 C 0,2 UV-I 1,2 C 37 % 56 % 34 % 1016,4 hPa 0,0 l/m 7,6 km/h (2 Bft) 0 min 0 min 8,0 km/h (2 Bft)
01.04.2012 18:34 18,8 C 10,7 C 0,2 UV-I 1,4 C 37 % 56 % 40 % 1016,4 hPa 0,0 l/m 8,4 km/h (2 Bft) 0 min 0 min 10,4 km/h (2 Bft)
01.04.2012 18:36 18,8 C 10,7 C 0,2 UV-I 1,5 C 38 % 56 % 43 % 1016,4 hPa 0,0 l/m 8,0 km/h (2 Bft) 0 min 0 min 10,4 km/h (2 Bft)
01.04.2012 18:38 18,8 C 10,8 C 0,2 UV-I 1,5 C 38 % 56 % 43 % 1016,4 hPa 0,0 l/m 8,0 km/h (2 Bft) 0 min 0 min 17,7 km/h (3 Bft)
01.04.2012 18:40 18,7 C 10,8 C 0,2 UV-I 1,6 C 38 % 56 % 46 % 1016,4 hPa 0,0 l/m 8,4 km/h (2 Bft) 0 min 0 min 17,7 km/h (3 Bft)
01.04.2012 18:42 18,7 C 10,8 C 0,1 UV-I 1,6 C 38 % 56 % 46 % 1016,4 hPa 0,0 l/m 8,0 km/h (2 Bft) 0 min 0 min 17,7 km/h (3 Bft)
01.04.2012 18:44 18,7 C 10,7 C 0,1 UV-I 1,5 C 38 % 56 % 43 % 1016,4 hPa 0,0 l/m 6,8 km/h (2 Bft) 0 min 0 min 14,5 km/h (3 Bft)
01.04.2012 18:46 18,7 C 10,7 C 0,1 UV-I 1,4 C 38 % 56 % 40 % 1016,6 hPa 0,0 l/m 7,2 km/h (2 Bft) 0 min 0 min 14,1 km/h (3 Bft)
01.04.2012 18:48 18,7 C 10,6 C 0,0 UV-I 1,5 C 38 % 56 % 43 % 1016,6 hPa 0,0 l/m 7,6 km/h (2 Bft) 0 min 0 min 14,1 km/h (3 Bft)
01.04.2012 18:50 18,7 C 10,7 C 0,0 UV-I 1,5 C 38 % 55 % 43 % 1016,6 hPa 0,0 l/m 7,6 km/h (2 Bft) 0 min 0 min 11,2 km/h (2 Bft)
01.04.2012 18:52 18,6 C 10,5 C 0,0 UV-I 1,7 C 38 % 56 % 49 % 1016,6 hPa 0,0 l/m 6,4 km/h (2 Bft) 2 min 0 min 11,2 km/h (2 Bft)
01.04.2012 18:54 18,6 C 10,5 C 0,0 UV-I 1,8 C 38 % 56 % 51 % 1016,6 hPa 0,0 l/m 7,2 km/h (2 Bft) 2 min 0 min 17,3 km/h (3 Bft)
01.04.2012 18:56 18,6 C 10,4 C 0,0 UV-I 1,8 C 38 % 56 % 51 % 1016,6 hPa 0,0 l/m 6,8 km/h (2 Bft) 2 min 0 min 17,3 km/h (3 Bft)
01.04.2012 18:58 18,6 C 10,5 C 0,0 UV-I 1,6 C 38 % 56 % 46 % 1016,6 hPa 0,0 l/m 6,4 km/h (2 Bft) 2 min 0 min 12,4 km/h (3 Bft)
01.04.2012 19:00 18,5 C 10,5 C 0,0 UV-I 1,5 C 38 % 56 % 43 % 1016,6 hPa 0,0 l/m 7,2 km/h (2 Bft) 2 min 0 min 24,9 km/h (4 Bft)
01.04.2012 19:02 18,5 C 10,5 C 0,0 UV-I 1,5 C 38 % 56 % 43 % 1016,6 hPa 0,0 l/m 6,8 km/h (2 Bft) 2 min 0 min 24,9 km/h (4 Bft)
01.04.2012 19:04 18,5 C 10,5 C 0,0 UV-I 1,4 C 38 % 56 % 40 % 1016,4 hPa 0,0 l/m 7,2 km/h (2 Bft) 2 min 0 min 8,0 km/h (2 Bft)
01.04.2012 19:06 18,5 C 10,5 C 0,0 UV-I 1,2 C 38 % 56 % 34 % 1016,4 hPa 0,0 l/m 6,4 km/h (2 Bft) 0 min 0 min 16,5 km/h (3 Bft)
01.04.2012 19:08 18,4 C 10,5 C 0,0 UV-I 0,9 C 38 % 56 % 26 % 1016,4 hPa 0,0 l/m 6,8 km/h (2 Bft) 0 min 0 min 16,5 km/h (3 Bft)
01.04.2012 19:10 18,4 C 10,5 C 0,0 UV-I 0,7 C 38 % 56 % 20 % 1016,4 hPa 0,0 l/m 6,8 km/h (2 Bft) 0 min 0 min 8,4 km/h (2 Bft)
01.04.2012 19:12 18,4 C 10,5 C 0,0 UV-I 0,4 C 38 % 56 % 11 % 1016,4 hPa 0,0 l/m 5,6 km/h (1 Bft) 0 min 0 min 5,6 km/h (1 Bft)
01.04.2012 19:14 18,4 C 10,4 C 0,0 UV-I 0,4 C 38 % 56 % 11 % 1016,4 hPa 0,0 l/m 5,6 km/h (1 Bft) 0 min 0 min 15,3 km/h (3 Bft)
01.04.2012 19:16 18,2 C 10,5 C 0,0 UV-I 0,3 C 38 % 56 % 9 % 1016,4 hPa 0,0 l/m 5,6 km/h (1 Bft) 0 min 0 min 22,1 km/h (4 Bft)
01.04.2012 19:18 18,3 C 10,5 C 0,0 UV-I 0,3 C 38 % 56 % 9 % 1016,4 hPa 0,0 l/m 6,0 km/h (2 Bft) 0 min 0 min 22,1 km/h (4 Bft)
01.04.2012 19:20 18,3 C 10,3 C 0,0 UV-I 0,5 C 38 % 56 % 14 % 1016,4 hPa 0,0 l/m 6,0 km/h (2 Bft) 0 min 0 min 8,0 km/h (2 Bft)
01.04.2012 19:22 18,2 C 10,3 C 0,0 UV-I 0,4 C 38 % 56 % 11 % 1016,4 hPa 0,0 l/m 6,0 km/h (2 Bft) 0 min 0 min 4,0 km/h (1 Bft)
01.04.2012 19:24 18,2 C 10,3 C 0,0 UV-I 0,3 C 38 % 57 % 9 % 1016,0 hPa 0,0 l/m 5,6 km/h (1 Bft) 0 min 0 min 4,0 km/h (1 Bft)
01.04.2012 19:26 18,2 C 10,2 C 0,0 UV-I 0,3 C 38 % 57 % 9 % 1016,0 hPa 0,0 l/m 4,8 km/h (1 Bft) 0 min 0 min 0,0 km/h (0 Bft)
01.04.2012 19:28 18,1 C 10,2 C 0,0 UV-I 0,2 C 38 % 57 % 6 % 1016,0 hPa 0,0 l/m 3,6 km/h (1 Bft) 0 min 0 min 0,0 km/h (0 Bft)
01.04.2012 19:30 18,1 C 10,1 C 0,0 UV-I 0,2 C 38 % 57 % 6 % 1016,0 hPa 0,0 l/m 2,0 km/h (1 Bft) 0 min 0 min 5,2 km/h (1 Bft)
01.04.2012 19:32 18,0 C 10,0 C 0,0 UV-I 0,2 C 38 % 58 % 6 % 1016,0 hPa 0,0 l/m 2,4 km/h (1 Bft) 0 min 0 min 10,4 km/h (2 Bft)
01.04.2012 19:34 18,0 C 9,9 C 0,0 UV-I 0,1 C 38 % 57 % 3 % 1016,0 hPa 0,0 l/m 1,6 km/h (1 Bft) 0 min 0 min 10,4 km/h (2 Bft)
01.04.2012 19:36 17,9 C 9,8 C 0,0 UV-I 0,0 C 38 % 58 % 0 % 1016,0 hPa 0,0 l/m 2,4 km/h (1 Bft) 0 min 0 min 6,4 km/h (2 Bft)
01.04.2012 19:38 17,9 C 9,9 C 0,0 UV-I 0,0 C 38 % 58 % 0 % 1016,0 hPa 0,0 l/m 2,4 km/h (1 Bft) 0 min 0 min 6,4 km/h (2 Bft)
01.04.2012 19:40 17,9 C 9,7 C 0,0 UV-I 0,0 C 38 % 58 % 0 % 1016,0 hPa 0,0 l/m 2,4 km/h (1 Bft) 0 min 0 min 10,8 km/h (2 Bft)
01.04.2012 19:42 17,8 C 9,6 C 0,0 UV-I 0,0 C 38 % 58 % 0 % 1016,0 hPa 0,0 l/m 2,8 km/h (1 Bft) 0 min 0 min 10,8 km/h (2 Bft)
01.04.2012 19:44 17,8 C 9,6 C 0,0 UV-I 0,0 C 38 % 58 % 0 % 1015,9 hPa 0,0 l/m 2,4 km/h (1 Bft) 0 min 0 min 5,6 km/h (1 Bft)
01.04.2012 19:46 17,8 C 9,5 C 0,0 UV-I 0,0 C 38 % 59 % 0 % 1015,9 hPa 0,0 l/m 2,0 km/h (1 Bft) 0 min 0 min 0,0 km/h (0 Bft)
01.04.2012 19:48 17,7 C 9,5 C 0,0 UV-I 0,0 C 39 % 59 % 0 % 1015,9 hPa 0,0 l/m 1,6 km/h (1 Bft) 0 min 0 min 4,8 km/h (1 Bft)
01.04.2012 19:50 17,6 C 9,5 C 0,0 UV-I 0,0 C 39 % 59 % 0 % 1015,9 hPa 0,0 l/m 1,6 km/h (1 Bft) 0 min 0 min 4,8 km/h (1 Bft)
01.04.2012 19:52 17,6 C 9,3 C 0,0 UV-I 0,0 C 39 % 60 % 0 % 1015,9 hPa 0,0 l/m 1,2 km/h (1 Bft) 0 min 0 min 0,0 km/h (0 Bft)
01.04.2012 19:54 17,6 C 9,2 C 0,0 UV-I 0,0 C 39 % 60 % 0 % 1015,9 hPa 0,0 l/m 0,4 km/h (0 Bft) 0 min 0 min 0,0 km/h (0 Bft)
01.04.2012 19:56 17,6 C 9,2 C 0,0 UV-I 0,0 C 39 % 60 % 0 % 1015,9 hPa 0,0 l/m 0,4 km/h (0 Bft) 0 min 0 min 0,0 km/h (0 Bft)
01.04.2012 19:58 17,5 C 9,1 C 0,0 UV-I 0,0 C 39 % 60 % 0 % 1015,9 hPa 0,0 l/m 0,4 km/h (0 Bft) 0 min 0 min 0,0 km/h (0 Bft)
01.04.2012 20:00 17,5 C 9,0 C 0,0 UV-I 0,0 C 39 % 60 % 0 % 1015,9 hPa 0,0 l/m 0,4 km/h (0 Bft) 0 min 0 min 0,0 km/h (0 Bft)
01.04.2012 20:02 17,4 C 8,9 C 0,0 UV-I 0,0 C 39 % 60 % 0 % 1015,9 hPa 0,0 l/m 0,4 km/h (0 Bft) 0 min 0 min 0,0 km/h (0 Bft)
01.04.2012 20:04 17,4 C 8,9 C 0,0 UV-I 0,0 C 39 % 61 % 0 % 1015,6 hPa 0,0 l/m 1,2 km/h (1 Bft) 0 min 0 min 5,6 km/h (1 Bft)
01.04.2012 20:06 17,4 C 8,8 C 0,0 UV-I 0,0 C 39 % 61 % 0 % 1015,6 hPa 0,0 l/m 1,2 km/h (1 Bft) 0 min 0 min 5,6 km/h (1 Bft)
01.04.2012 20:08 17,2 C 8,9 C 0,0 UV-I 0,0 C 39 % 61 % 0 % 1015,6 hPa 0,0 l/m 0,8 km/h (0 Bft) 0 min 0 min 0,0 km/h (0 Bft)
01.04.2012 20:10 17,3 C 8,7 C 0,0 UV-I 0,0 C 39 % 62 % 0 % 1015,6 hPa 0,0 l/m 1,2 km/h (1 Bft) 0 min 0 min 0,0 km/h (0 Bft)
01.04.2012 20:12 17,3 C 8,7 C 0,0 UV-I 0,0 C 39 % 62 % 0 % 1015,6 hPa 0,0 l/m 1,2 km/h (1 Bft) 0 min 0 min 0,0 km/h (0 Bft)
01.04.2012 20:14 17,2 C 8,7 C 0,0 UV-I 0,0 C 40 % 62 % 0 % 1015,6 hPa 0,0 l/m 0,8 km/h (0 Bft) 0 min 0 min 0,0 km/h (0 Bft)
01.04.2012 20:16 17,2 C 8,5 C 0,0 UV-I 0,0 C 40 % 62 % 0 % 1015,6 hPa 0,0 l/m 0,4 km/h (0 Bft) 0 min 0 min 0,0 km/h (0 Bft)
01.04.2012 20:18 17,2 C 8,4 C 0,0 UV-I 0,0 C 40 % 62 % 0 % 1015,6 hPa 0,0 l/m 0,4 km/h (0 Bft) 0 min 0 min 0,0 km/h (0 Bft)
01.04.2012 20:20 17,2 C 8,5 C 0,0 UV-I 0,0 C 40 % 62 % 0 % 1015,6 hPa 0,0 l/m 0,0 km/h (0 Bft) 0 min 0 min 0,0 km/h (0 Bft)
01.04.2012 20:22 17,1 C 8,3 C 0,0 UV-I 0,0 C 40 % 62 % 0 % 1015,6 hPa 0,0 l/m 0,0 km/h (0 Bft) 0 min 0 min 0,0 km/h (0 Bft)
01.04.2012 20:24 17,1 C 8,3 C 0,0 UV-I 0,0 C 40 % 62 % 0 % 1015,2 hPa 0,0 l/m 0,0 km/h (0 Bft) 0 min 0 min 0,0 km/h (0 Bft)
01.04.2012 20:26 17,1 C 8,3 C 0,0 UV-I 0,0 C 40 % 62 % 0 % 1015,2 hPa 0,0 l/m 0,0 km/h (0 Bft) 0 min 0 min 0,0 km/h (0 Bft)
01.04.2012 20:28 17,0 C 8,3 C 0,0 UV-I 0,0 C 40 % 62 % 0 % 1015,2 hPa 0,0 l/m 0,0 km/h (0 Bft) 0 min 0 min 0,0 km/h (0 Bft)
01.04.2012 20:30 17,0 C 8,1 C 0,0 UV-I 0,0 C 40 % 63 % 0 % 1015,2 hPa 0,0 l/m 0,4 km/h (0 Bft) 0 min 0 min 4,4 km/h (1 Bft)
01.04.2012 20:32 17,0 C 8,1 C 0,0 UV-I 0,0 C 40 % 63 % 0 % 1015,2 hPa 0,0 l/m 0,4 km/h (0 Bft) 0 min 0 min 6,4 km/h (2 Bft)
01.04.2012 20:34 17,0 C 8,0 C 0,0 UV-I 0,0 C 40 % 63 % 0 % 1015,2 hPa 0,0 l/m 0,4 km/h (0 Bft) 0 min 0 min 6,4 km/h (2 Bft)
01.04.2012 20:36 16,9 C 8,1 C 0,0 UV-I 0,0 C 40 % 63 % 0 % 1015,2 hPa 0,0 l/m 0,8 km/h (0 Bft) 0 min 0 min 0,0 km/h (0 Bft)
01.04.2012 20:38 16,9 C 8,0 C 0,0 UV-I 0,0 C 40 % 63 % 0 % 1015,2 hPa 0,0 l/m 0,8 km/h (0 Bft) 0 min 0 min 0,0 km/h (0 Bft)
01.04.2012 20:40 16,9 C 8,0 C 0,0 UV-I 0,0 C 40 % 63 % 0 % 1015,2 hPa 0,0 l/m 0,4 km/h (0 Bft) 0 min 0 min 0,0 km/h (0 Bft)
01.04.2012 20:42 16,8 C 7,9 C 0,0 UV-I 0,0 C 40 % 64 % 0 % 1015,2 hPa 0,0 l/m 0,4 km/h (0 Bft) 0 min 0 min 0,0 km/h (0 Bft)
01.04.2012 20:44 16,8 C 7,8 C 0,0 UV-I 0,0 C 40 % 64 % 0 % 1015,2 hPa 0,0 l/m 0,4 km/h (0 Bft) 0 min 0 min 4,8 km/h (1 Bft)
01.04.2012 20:46 16,8 C 7,9 C 0,0 UV-I 0,0 C 41 % 64 % 0 % 1015,2 hPa 0,0 l/m 0,4 km/h (0 Bft) 0 min 0 min 4,8 km/h (1 Bft)
01.04.2012 20:48 16,8 C 7,8 C 0,0 UV-I 0,0 C 41 % 64 % 0 % 1015,2 hPa 0,0 l/m 0,4 km/h (0 Bft) 0 min 0 min 0,0 km/h (0 Bft)
01.04.2012 20:50 16,8 C 7,7 C 0,0 UV-I 0,0 C 41 % 64 % 0 % 1015,2 hPa 0,0 l/m 0,4 km/h (0 Bft) 0 min 0 min 0,0 km/h (0 Bft)
01.04.2012 20:52 16,8 C 7,6 C 0,0 UV-I 0,0 C 41 % 64 % 0 % 1015,2 hPa 0,0 l/m 0,4 km/h (0 Bft) 0 min 0 min 0,0 km/h (0 Bft)
01.04.2012 20:54 16,7 C 7,7 C 0,0 UV-I 0,0 C 41 % 64 % 0 % 1015,2 hPa 0,0 l/m 0,0 km/h (0 Bft) 0 min 0 min 0,0 km/h (0 Bft)
01.04.2012 20:56 16,7 C 7,6 C 0,0 UV-I 0,0 C 41 % 64 % 0 % 1015,2 hPa 0,0 l/m 0,0 km/h (0 Bft) 0 min 0 min 0,0 km/h (0 Bft)
01.04.2012 20:58 16,7 C 7,5 C 0,0 UV-I 0,0 C 41 % 65 % 0 % 1015,2 hPa 0,0 l/m 0,0 km/h (0 Bft) 0 min 0 min 0,0 km/h (0 Bft)
01.04.2012 21:00 16,6 C 7,4 C 0,0 UV-I 0,0 C 41 % 65 % 0 % 1015,2 hPa 0,0 l/m 0,0 km/h (0 Bft) 0 min 0 min 5,2 km/h (1 Bft)
01.04.2012 21:02 16,6 C 7,5 C 0,0 UV-I 0,0 C 41 % 65 % 0 % 1015,2 hPa 0,0 l/m 0,0 km/h (0 Bft) 0 min 0 min 5,2 km/h (1 Bft)
01.04.2012 21:04 16,6 C 7,3 C 0,0 UV-I 0,0 C 41 % 65 % 0 % 1015,4 hPa 0,0 l/m 0,0 km/h (0 Bft) 0 min 0 min 0,0 km/h (0 Bft)
01.04.2012 21:06 16,6 C 7,3 C 0,0 UV-I 0,0 C 41 % 65 % 0 % 1015,4 hPa 0,0 l/m 0,0 km/h (0 Bft) 0 min 0 min 0,0 km/h (0 Bft)
01.04.2012 21:08 16,6 C 7,2 C 0,0 UV-I 0,0 C 41 % 65 % 0 % 1015,4 hPa 0,0 l/m 0,0 km/h (0 Bft) 0 min 0 min 0,0 km/h (0 Bft)
01.04.2012 21:10 16,6 C 7,2 C 0,0 UV-I 0,0 C 41 % 65 % 0 % 1015,4 hPa 0,0 l/m 0,0 km/h (0 Bft) 0 min 0 min 0,0 km/h (0 Bft)
01.04.2012 21:12 16,5 C 7,2 C 0,0 UV-I 0,0 C 41 % 65 % 0 % 1015,4 hPa 0,0 l/m 0,0 km/h (0 Bft) 0 min 0 min 0,0 km/h (0 Bft)
01.04.2012 21:14 16,5 C 7,1 C 0,0 UV-I 0,0 C 41 % 66 % 0 % 1015,4 hPa 0,0 l/m 0,4 km/h (0 Bft) 0 min 0 min 5,6 km/h (1 Bft)
01.04.2012 21:16 16,5 C 7,1 C 0,0 UV-I 0,0 C 41 % 66 % 0 % 1015,4 hPa 0,0 l/m 0,4 km/h (0 Bft) 0 min 0 min 5,6 km/h (1 Bft)
01.04.2012 21:18 16,4 C 7,0 C 0,0 UV-I 0,0 C 41 % 66 % 0 % 1015,4 hPa 0,0 l/m 1,2 km/h (1 Bft) 0 min 0 min 4,4 km/h (1 Bft)
01.04.2012 21:20 16,4 C 7,1 C 0,0 UV-I 0,0 C 41 % 66 % 0 % 1015,4 hPa 0,0 l/m 1,2 km/h (1 Bft) 0 min 0 min 0,0 km/h (0 Bft)
01.04.2012 21:22 16,4 C 6,9 C 0,0 UV-I 0,0 C 41 % 67 % 0 % 1015,4 hPa 0,0 l/m 1,6 km/h (1 Bft) 0 min 0 min 4,8 km/h (1 Bft)
01.04.2012 21:24 16,4 C 6,9 C 0,0 UV-I 0,0 C 42 % 67 % 0 % 1015,4 hPa 0,0 l/m 1,6 km/h (1 Bft) 0 min 0 min 4,8 km/h (1 Bft)
01.04.2012 21:26 16,4 C 6,9 C 0,0 UV-I 0,0 C 42 % 67 % 0 % 1015,4 hPa 0,0 l/m 1,2 km/h (1 Bft) 0 min 0 min 0,0 km/h (0 Bft)
01.04.2012 21:28 16,4 C 6,9 C 0,0 UV-I 0,0 C 42 % 67 % 0 % 1015,4 hPa 0,0 l/m 0,8 km/h (0 Bft) 0 min 0 min 0,0 km/h (0 Bft)
01.04.2012 21:30 16,4 C 6,8 C 0,0 UV-I 0,0 C 42 % 67 % 0 % 1015,4 hPa 0,0 l/m 1,2 km/h (1 Bft) 0 min 0 min 0,0 km/h (0 Bft)
01.04.2012 21:32 16,4 C 6,8 C 0,0 UV-I 0,0 C 42 % 68 % 0 % 1015,4 hPa 0,0 l/m 2,0 km/h (1 Bft) 0 min 0 min 5,6 km/h (1 Bft)
01.04.2012 21:34 16,4 C 6,9 C 0,0 UV-I 0,0 C 42 % 68 % 0 % 1015,4 hPa 0,0 l/m 2,0 km/h (1 Bft) 0 min 0 min 5,6 km/h (1 Bft)
01.04.2012 21:36 16,4 C 6,8 C 0,0 UV-I 0,0 C 42 % 68 % 0 % 1015,4 hPa 0,0 l/m 2,4 km/h (1 Bft) 0 min 0 min 5,6 km/h (1 Bft)
01.04.2012 21:38 16,4 C 6,8 C 0,0 UV-I 0,0 C 42 % 68 % 0 % 1015,4 hPa 0,0 l/m 2,8 km/h (1 Bft) 0 min 0 min 5,6 km/h (1 Bft)
01.04.2012 21:40 16,2 C 6,7 C 0,0 UV-I 0,0 C 42 % 68 % 0 % 1015,4 hPa 0,0 l/m 2,4 km/h (1 Bft) 0 min 0 min 0,0 km/h (0 Bft)
01.04.2012 21:42 16,2 C 6,7 C 0,0 UV-I 0,0 C 42 % 68 % 0 % 1015,4 hPa 0,0 l/m 2,0 km/h (1 Bft) 0 min 0 min 0,0 km/h (0 Bft)
01.04.2012 21:44 16,3 C 6,6 C 0,0 UV-I 0,0 C 42 % 68 % 0 % 1015,4 hPa 0,0 l/m 1,6 km/h (1 Bft) 0 min 0 min 8,0 km/h (2 Bft)
01.04.2012 21:46 16,3 C 6,7 C 0,0 UV-I 0,0 C 42 % 68 % 0 % 1015,4 hPa 0,0 l/m 1,6 km/h (1 Bft) 0 min 0 min 8,0 km/h (2 Bft)
01.04.2012 21:48 16,3 C 6,7 C 0,0 UV-I 0,0 C 42 % 69 % 0 % 1015,4 hPa 0,0 l/m 1,6 km/h (1 Bft) 0 min 0 min 8,8 km/h (2 Bft)
01.04.2012 21:50 16,2 C 6,6 C 0,0 UV-I 0,0 C 42 % 69 % 0 % 1015,4 hPa 0,0 l/m 1,6 km/h (1 Bft) 0 min 0 min 8,8 km/h (2 Bft)
01.04.2012 21:52 16,2 C 6,5 C 0,0 UV-I 0,0 C 42 % 69 % 0 % 1015,4 hPa 0,0 l/m 2,0 km/h (1 Bft) 0 min 0 min 0,0 km/h (0 Bft)
01.04.2012 21:54 16,2 C 6,5 C 0,0 UV-I 0,0 C 42 % 69 % 0 % 1015,4 hPa 0,0 l/m 1,6 km/h (1 Bft) 0 min 0 min 0,0 km/h (0 Bft)
01.04.2012 21:56 16,2 C 6,5 C 0,0 UV-I 0,0 C 42 % 70 % 0 % 1015,4 hPa 0,0 l/m 1,6 km/h (1 Bft) 0 min 0 min 4,0 km/h (1 Bft)
01.04.2012 21:58 16,2 C 6,4 C 0,0 UV-I 0,0 C 42 % 70 % 0 % 1015,4 hPa 0,0 l/m 1,2 km/h (1 Bft) 0 min 0 min 4,0 km/h (1 Bft)
01.04.2012 22:00 16,2 C 6,5 C 0,0 UV-I 0,0 C 42 % 70 % 0 % 1015,4 hPa 0,0 l/m 1,2 km/h (1 Bft) 0 min 0 min 8,0 km/h (2 Bft)
01.04.2012 22:02 16,2 C 6,4 C 0,0 UV-I 0,0 C 42 % 70 % 0 % 1015,4 hPa 0,0 l/m 0,8 km/h (0 Bft) 0 min 0 min 8,0 km/h (2 Bft)
01.04.2012 22:04 16,2 C 6,4 C 0,0 UV-I 0,0 C 42 % 70 % 0 % 1015,8 hPa 0,0 l/m 2,0 km/h (1 Bft) 0 min 0 min 14,9 km/h (3 Bft)
01.04.2012 22:06 16,2 C 6,4 C 0,0 UV-I 0,0 C 42 % 70 % 0 % 1015,8 hPa 0,0 l/m 2,0 km/h (1 Bft) 0 min 0 min 14,9 km/h (3 Bft)
01.04.2012 22:08 16,2 C 6,3 C 0,0 UV-I 0,0 C 42 % 71 % 0 % 1015,8 hPa 0,0 l/m 2,8 km/h (1 Bft) 0 min 0 min 0,0 km/h (0 Bft)
01.04.2012 22:10 16,2 C 6,3 C 0,0 UV-I 0,0 C 42 % 71 % 0 % 1015,8 hPa 0,0 l/m 3,6 km/h (1 Bft) 0 min 0 min 4,0 km/h (1 Bft)
01.04.2012 22:12 16,2 C 6,3 C 0,0 UV-I 0,0 C 42 % 71 % 0 % 1015,8 hPa 0,0 l/m 3,2 km/h (1 Bft) 0 min 0 min 4,0 km/h (1 Bft)
01.04.2012 22:14 16,1 C 6,3 C 0,0 UV-I 0,0 C 43 % 71 % 0 % 1015,8 hPa 0,0 l/m 3,6 km/h (1 Bft) 0 min 0 min 8,4 km/h (2 Bft)
01.04.2012 22:16 16,1 C 6,3 C 0,0 UV-I 0,0 C 43 % 71 % 0 % 1015,8 hPa 0,0 l/m 3,6 km/h (1 Bft) 0 min 0 min 8,4 km/h (2 Bft)
01.04.2012 22:18 16,1 C 6,2 C 0,0 UV-I 0,0 C 43 % 71 % 0 % 1015,8 hPa 0,0 l/m 3,2 km/h (1 Bft) 0 min 0 min 4,4 km/h (1 Bft)
01.04.2012 22:20 16,1 C 6,3 C 0,0 UV-I 0,0 C 43 % 72 % 0 % 1015,8 hPa 0,0 l/m 2,8 km/h (1 Bft) 0 min 0 min 0,0 km/h (0 Bft)
01.04.2012 22:22 16,1 C 6,3 C 0,0 UV-I 0,0 C 43 % 72 % 0 % 1015,8 hPa 0,0 l/m 2,4 km/h (1 Bft) 0 min 0 min 0,0 km/h (0 Bft)
01.04.2012 22:24 15,9 C 6,2 C 0,0 UV-I 0,0 C 43 % 72 % 0 % 1015,8 hPa 0,0 l/m 2,0 km/h (1 Bft) 0 min 0 min 0,0 km/h (0 Bft)
01.04.2012 22:26 16,1 C 6,1 C 0,0 UV-I 0,0 C 43 % 72 % 0 % 1015,8 hPa 0,0 l/m 2,4 km/h (1 Bft) 0 min 0 min 11,2 km/h (2 Bft)
01.04.2012 22:28 15,9 C 6,1 C 0,0 UV-I 0,0 C 43 % 72 % 0 % 1015,8 hPa 0,0 l/m 2,0 km/h (1 Bft) 0 min 0 min 11,2 km/h (2 Bft)
01.04.2012 22:30 15,9 C 6,0 C 0,0 UV-I 0,0 C 43 % 72 % 0 % 1015,8 hPa 0,0 l/m 2,0 km/h (1 Bft) 0 min 0 min 0,0 km/h (0 Bft)
01.04.2012 22:32 15,9 C 6,0 C 0,0 UV-I 0,0 C 43 % 72 % 0 % 1015,8 hPa 0,0 l/m 1,6 km/h (1 Bft) 0 min 0 min 0,0 km/h (0 Bft)
01.04.2012 22:34 15,9 C 6,0 C 0,0 UV-I 0,0 C 43 % 72 % 0 % 1015,8 hPa 0,0 l/m 2,0 km/h (1 Bft) 0 min 0 min 0,0 km/h (0 Bft)
01.04.2012 22:36 15,9 C 6,0 C 0,0 UV-I 0,0 C 43 % 72 % 0 % 1015,8 hPa 0,0 l/m 1,6 km/h (1 Bft) 0 min 0 min 0,0 km/h (0 Bft)
01.04.2012 22:38 15,9 C 5,9 C 0,0 UV-I 0,0 C 43 % 73 % 0 % 1015,8 hPa 0,0 l/m 0,8 km/h (0 Bft) 0 min 0 min 0,0 km/h (0 Bft)
01.04.2012 22:40 16,0 C 5,9 C 0,0 UV-I 0,0 C 43 % 73 % 0 % 1015,8 hPa 0,0 l/m 0,8 km/h (0 Bft) 0 min 0 min 9,6 km/h (2 Bft)
01.04.2012 22:42 16,0 C 5,8 C 0,0 UV-I 0,0 C 43 % 73 % 0 % 1015,8 hPa 0,0 l/m 1,2 km/h (1 Bft) 0 min 0 min 9,6 km/h (2 Bft)
01.04.2012 22:44 16,0 C 5,8 C 0,0 UV-I 0,0 C 43 % 73 % 0 % 1015,8 hPa 0,0 l/m 1,2 km/h (1 Bft) 0 min 0 min 0,0 km/h (0 Bft)
01.04.2012 22:46 16,0 C 5,9 C 0,0 UV-I 0,0 C 43 % 73 % 0 % 1015,8 hPa 0,0 l/m 0,8 km/h (0 Bft) 0 min 0 min 0,0 km/h (0 Bft)
01.04.2012 22:48 16,0 C 5,7 C 0,0 UV-I 0,0 C 43 % 73 % 0 % 1015,8 hPa 0,0 l/m 0,8 km/h (0 Bft) 0 min 0 min 0,0 km/h (0 Bft)
01.04.2012 22:50 16,0 C 5,7 C 0,0 UV-I 0,0 C 43 % 73 % 0 % 1015,8 hPa 0,0 l/m 1,2 km/h (1 Bft) 0 min 0 min 0,0 km/h (0 Bft)
01.04.2012 22:52 16,0 C 5,7 C 0,0 UV-I 0,0 C 43 % 73 % 0 % 1015,8 hPa 0,0 l/m 0,4 km/h (0 Bft) 0 min 0 min 0,0 km/h (0 Bft)
01.04.2012 22:54 16,0 C 5,6 C 0,0 UV-I 0,0 C 43 % 73 % 0 % 1015,8 hPa 0,0 l/m 0,4 km/h (0 Bft) 0 min 0 min 0,0 km/h (0 Bft)
01.04.2012 22:56 16,0 C 5,7 C 0,0 UV-I 0,0 C 43 % 73 % 0 % 1015,8 hPa 0,0 l/m 0,4 km/h (0 Bft) 0 min 0 min 0,0 km/h (0 Bft)
01.04.2012 22:58 15,8 C 5,7 C 0,0 UV-I 0,0 C 43 % 74 % 0 % 1015,8 hPa 0,0 l/m 0,8 km/h (0 Bft) 0 min 0 min 5,6 km/h (1 Bft)
01.04.2012 23:00 16,0 C 5,7 C 0,0 UV-I 0,0 C 43 % 74 % 0 % 1015,8 hPa 0,0 l/m 0,4 km/h (0 Bft) 0 min 0 min 5,6 km/h (1 Bft)
01.04.2012 23:02 15,8 C 5,6 C 0,0 UV-I 0,0 C 43 % 74 % 0 % 1015,8 hPa 0,0 l/m 0,4 km/h (0 Bft) 0 min 0 min 0,0 km/h (0 Bft)
01.04.2012 23:04 15,8 C 5,5 C 0,0 UV-I 0,0 C 43 % 74 % 0 % 1015,6 hPa 0,0 l/m 0,4 km/h (0 Bft) 0 min 0 min 0,0 km/h (0 Bft)
01.04.2012 23:06 15,8 C 5,5 C 0,0 UV-I 0,0 C 43 % 74 % 0 % 1015,6 hPa 0,0 l/m 0,4 km/h (0 Bft) 0 min 0 min 0,0 km/h (0 Bft)
01.04.2012 23:08 15,9 C 5,4 C 0,0 UV-I 0,0 C 43 % 74 % 0 % 1015,6 hPa 0,0 l/m 0,4 km/h (0 Bft) 0 min 0 min 0,0 km/h (0 Bft)
01.04.2012 23:10 15,9 C 5,5 C 0,0 UV-I 0,0 C 43 % 74 % 0 % 1015,6 hPa 0,0 l/m 0,0 km/h (0 Bft) 0 min 0 min 0,0 km/h (0 Bft)
01.04.2012 23:12 15,9 C 5,4 C 0,0 UV-I 0,0 C 43 % 74 % 0 % 1015,6 hPa 0,0 l/m 0,0 km/h (0 Bft) 0 min 0 min 0,0 km/h (0 Bft)
01.04.2012 23:14 15,9 C 5,3 C 0,0 UV-I 0,0 C 43 % 74 % 0 % 1015,6 hPa 0,0 l/m 0,0 km/h (0 Bft) 0 min 0 min 0,0 km/h (0 Bft)
01.04.2012 23:16 15,9 C 5,3 C 0,0 UV-I 0,0 C 43 % 74 % 0 % 1015,6 hPa 0,0 l/m 0,0 km/h (0 Bft) 0 min 0 min 0,0 km/h (0 Bft)
01.04.2012 23:18 15,9 C 5,2 C 0,0 UV-I 0,0 C 43 % 74 % 0 % 1015,6 hPa 0,0 l/m 0,0 km/h (0 Bft) 0 min 0 min 0,0 km/h (0 Bft)
01.04.2012 23:20 15,9 C 5,3 C 0,0 UV-I 0,0 C 43 % 74 % 0 % 1015,6 hPa 0,0 l/m 0,0 km/h (0 Bft) 0 min 0 min 0,0 km/h (0 Bft)
01.04.2012 23:22 15,9 C 5,2 C 0,0 UV-I 0,0 C 43 % 75 % 0 % 1015,6 hPa 0,0 l/m 0,0 km/h (0 Bft) 0 min 0 min 0,0 km/h (0 Bft)
01.04.2012 23:24 15,9 C 5,1 C 0,0 UV-I 0,0 C 43 % 75 % 0 % 1015,1 hPa 0,0 l/m 0,0 km/h (0 Bft) 0 min 0 min 0,0 km/h (0 Bft)
01.04.2012 23:26 15,8 C 5,1 C 0,0 UV-I 0,0 C 43 % 75 % 0 % 1015,1 hPa 0,0 l/m 0,0 km/h (0 Bft) 0 min 0 min 0,0 km/h (0 Bft)
01.04.2012 23:28 15,9 C 5,1 C 0,0 UV-I 0,0 C 43 % 75 % 0 % 1015,1 hPa 0,0 l/m 0,0 km/h (0 Bft) 0 min 0 min 0,0 km/h (0 Bft)
01.04.2012 23:30 15,8 C 5,0 C 0,0 UV-I 0,0 C 43 % 75 % 0 % 1015,1 hPa 0,0 l/m 0,0 km/h (0 Bft) 0 min 0 min 0,0 km/h (0 Bft)
01.04.2012 23:32 15,8 C 5,1 C 0,0 UV-I 0,0 C 44 % 75 % 0 % 1015,1 hPa 0,0 l/m 0,0 km/h (0 Bft) 0 min 0 min 0,0 km/h (0 Bft)
01.04.2012 23:34 15,8 C 5,0 C 0,0 UV-I 0,0 C 43 % 75 % 0 % 1015,1 hPa 0,0 l/m 0,0 km/h (0 Bft) 0 min 0 min 0,0 km/h (0 Bft)
01.04.2012 23:36 15,8 C 4,9 C 0,0 UV-I 0,0 C 44 % 75 % 0 % 1015,1 hPa 0,0 l/m 0,0 km/h (0 Bft) 0 min 0 min 0,0 km/h (0 Bft)
01.04.2012 23:38 15,8 C 4,9 C 0,0 UV-I 0,0 C 44 % 75 % 0 % 1015,1 hPa 0,0 l/m 0,0 km/h (0 Bft) 0 min 0 min 0,0 km/h (0 Bft)
01.04.2012 23:40 15,8 C 4,8 C 0,0 UV-I 0,0 C 44 % 75 % 0 % 1015,1 hPa 0,0 l/m 0,0 km/h (0 Bft) 0 min 0 min 0,0 km/h (0 Bft)
01.04.2012 23:42 15,8 C 4,8 C 0,0 UV-I 0,0 C 44 % 75 % 0 % 1015,1 hPa 0,0 l/m 0,0 km/h (0 Bft) 0 min 0 min 0,0 km/h (0 Bft)
01.04.2012 23:44 15,8 C 4,8 C 0,0 UV-I 0,0 C 44 % 76 % 0 % 1015,1 hPa 0,0 l/m 0,0 km/h (0 Bft) 0 min 0 min 0,0 km/h (0 Bft)
01.04.2012 23:46 15,8 C 4,8 C 0,0 UV-I 0,0 C 44 % 76 % 0 % 1015,1 hPa 0,0 l/m 0,0 km/h (0 Bft) 0 min 0 min 0,0 km/h (0 Bft)
01.04.2012 23:48 15,8 C 4,7 C 0,0 UV-I 0,0 C 44 % 76 % 0 % 1015,1 hPa 0,0 l/m 0,0 km/h (0 Bft) 0 min 0 min 0,0 km/h (0 Bft)
01.04.2012 23:50 15,8 C 4,7 C 0,0 UV-I 0,0 C 44 % 76 % 0 % 1015,1 hPa 0,0 l/m 0,0 km/h (0 Bft) 0 min 0 min 0,0 km/h (0 Bft)
01.04.2012 23:52 15,8 C 4,7 C 0,0 UV-I 0,0 C 44 % 76 % 0 % 1015,1 hPa 0,0 l/m 0,0 km/h (0 Bft) 0 min 0 min 0,0 km/h (0 Bft)
01.04.2012 23:54 15,8 C 4,7 C 0,0 UV-I 0,0 C 44 % 76 % 0 % 1015,1 hPa 0,0 l/m 0,0 km/h (0 Bft) 0 min 0 min 0,0 km/h (0 Bft)
01.04.2012 23:56 15,8 C 4,5 C 0,0 UV-I 0,0 C 44 % 76 % 0 % 1015,1 hPa 0,0 l/m 0,0 km/h (0 Bft) 0 min 0 min 0,0 km/h (0 Bft)
01.04.2012 23:58 15,8 C 4,5 C 0,0 UV-I 0,0 C 44 % 76 % 0 % 1015,1 hPa 0,0 l/m 0,0 km/h (0 Bft) 0 min 0 min 0,0 km/h (0 Bft)
_ Min-Zeit 07:30 05:42 00:00 00:00 15:58 15:58 00:00 23:24 - 00:00 - - 00:00
Minimum _ 14,6 C -1,0 C 0,0 UV-I 0,0 C 36 % 52 % 0 % 1015,1 hPa - 0,0 km/h (0 Bft) - - 0,0 km/h (0 Bft)
_ Max-Zeit 16:04 15:54 11:48 10:30 00:00 08:26 08:58 16:04 00:00 14:46 08:56 02:56 15:02
Maximum _ 19,6 C 11,5 C 4,7 UV-I 10,0 C 46 % 93 % 100 % 1020,9 hPa 0,0 l/m 10,8 km/h
S (2 Bft)
2 min 2 min 35,3 km/h
NW (5 Bft)
Durchschnitt _ 16,2 C 5,2 C 0,7 UV-I 2,3 C 43 % 73 % 39 % 1018,8 hPa #0,0 l/m 3,1 km/h (1 Bft) #8:30 h #8 min. 6,0 km/h (2 Bft)
© 2012 W. Hausmann